M I D A S
Marine Information and Data Acquisition System
Tripno 2252 of the Zeeleeuw from 2012-01-10 07:41:26 to 2012-01-10 16:58:52
Back to CruiseResearch ActivitiesStationsMapUnderway DataData graphs

EquipmentUnitsComment
TimeDGPSUTC
LatitudeDGPSDM.mWGS84
LongitudeDGPSDM.mWGS84
TemperatureSBE03/SBE38deg celciusITS90
ConductivitySBE21S/mITS90
SalinitySBE21 Practical Salinity Units
ChlorophylAChelsea fluorimeterg/lCalibrated in Aceton
Missing or incorrect values are displayed as -999
Sea surface data collected by the RV Zeeleeuw from 2012-01-10 07:44:33 to 2012-01-10 17:02:15
                                                                                    Next 1000 lines
Time Latitude Longitude Temperature Conductivity Salinity ChlorophylA
2012-01-10 07:44:42 51°13.635 2°56.012 12.9487 0.025952 0.14687 -2.458615
2012-01-10 07:44:47 51°13.637 2°56.007 12.9636 0.025952 0.146873 -2.458615
2012-01-10 07:44:52 51°13.638 2°56.002 12.9673 0.025952 0.146875 -2.458615
2012-01-10 07:44:58 51°13.64 2°55.994 12.9745 0.025952 0.146875 -2.458615
2012-01-10 07:45:03 51°13.642 2°55.987 13.0186 0.025952 0.146875 -2.458615
2012-01-10 07:45:10 51°13.644 2°55.977 12.9938 0.025952 0.146878 -2.458615
2012-01-10 07:45:14 51°13.645 2°55.972 13.0022 0.025952 0.146881 -2.458615
2012-01-10 07:45:20 51°13.647 2°55.963 12.996 0.025952 0.146883 -2.458615
2012-01-10 07:45:25 51°13.649 2°55.955 13.0013 0.025952 0.146883 -2.458615
2012-01-10 07:45:30 51°13.65 2°55.947 13.0195 0.025952 0.146886 -2.458615
2012-01-10 07:45:34 51°13.652 2°55.94 13.0176 0.025952 0.146886 -2.458615
2012-01-10 07:45:40 51°13.654 2°55.93 13.0188 0.025952 0.146886 -2.458615
2012-01-10 07:45:45 51°13.656 2°55.922 13.0301 0.025952 0.146888 -2.458615
2012-01-10 07:45:50 51°13.658 2°55.913 13.0229 0.025952 0.146888 -2.458615
2012-01-10 07:45:54 51°13.659 2°55.907 13.028 0.025952 0.146891 -2.458615
2012-01-10 07:46:00 51°13.662 2°55.896 13.0131 0.025952 0.146891 -2.458615
2012-01-10 07:46:05 51°13.665 2°55.887 13.0216 0.025952 0.146891 -2.458615
2012-01-10 07:46:10 51°13.667 2°55.878 13.0284 0.025952 0.146894 -2.458615
2012-01-10 07:46:14 51°13.67 2°55.871 13.0357 0.025952 0.146896 -2.458615
2012-01-10 07:46:20 51°13.673 2°55.86 13.0309 0.025952 0.146896 -2.458615
2012-01-10 07:46:25 51°13.676 2°55.85 13.0305 0.025952 0.146899 -2.458615
2012-01-10 07:46:30 51°13.68 2°55.841 13.0253 0.025952 0.146899 -2.458615
2012-01-10 07:46:34 51°13.683 2°55.834 13.0242 0.025952 0.146899 -2.458615
2012-01-10 07:46:40 51°13.687 2°55.823 13.0312 0.025952 0.146901 -2.458615
2012-01-10 07:46:45 51°13.691 2°55.813 13.0266 0.025952 0.146904 -2.458615
2012-01-10 07:46:50 51°13.695 2°55.804 13.0258 0.025952 0.146904 -2.458615
2012-01-10 07:46:54 51°13.698 2°55.797 13.026 0.025952 0.146907 -2.458615
2012-01-10 07:47:00 51°13.703 2°55.785 13.0359 0.025952 0.146907 -2.458615
2012-01-10 07:47:05 51°13.707 2°55.776 13.0397 0.025952 0.146909 -2.458615
2012-01-10 07:47:10 51°13.712 2°55.767 13.0396 0.025952 0.146909 -2.458615
2012-01-10 07:47:14 51°13.715 2°55.76 13.0321 0.025952 0.146912 -2.458615
2012-01-10 07:47:20 51°13.721 2°55.749 13.0423 0.025952 0.146912 -2.458615
2012-01-10 07:47:25 51°13.725 2°55.74 13.0225 0.025952 0.146914 -2.458615
2012-01-10 07:47:30 51°13.73 2°55.731 13.0372 0.025952 0.146914 -2.458615
2012-01-10 07:47:34 51°13.734 2°55.724 13.0504 0.025952 0.146914 -2.458615
2012-01-10 07:47:40 51°13.74 2°55.714 13.0611 0.025952 0.146917 -2.458615
2012-01-10 07:47:45 51°13.745 2°55.706 13.0521 0.025952 0.146917 -2.458615
2012-01-10 07:47:50 51°13.75 2°55.698 13.0471 0.025952 0.14692 -2.458615
2012-01-10 07:47:55 51°13.756 2°55.691 13.0443 0.025952 0.14692 -2.458615
2012-01-10 07:48:00 51°13.762 2°55.684 13.0467 0.025952 0.146922 -2.458615
2012-01-10 07:48:05 51°13.768 2°55.677 13.0503 0.025952 0.146922 -2.458615
2012-01-10 07:48:10 51°13.774 2°55.67 13.0456 0.025952 0.146925 -2.458615
2012-01-10 07:48:15 51°13.78 2°55.664 13.0264 0.025952 0.146925 -2.458615
2012-01-10 07:48:20 51°13.787 2°55.658 13.0532 0.025952 0.146927 -2.458615
2012-01-10 07:48:25 51°13.794 2°55.653 13.0432 0.025952 0.146927 -2.458615
2012-01-10 07:48:30 51°13.8 2°55.648 13.0422 0.025952 0.14693 -2.458615
2012-01-10 07:48:35 51°13.807 2°55.644 13.0397 0.025952 0.14693 -2.458615
2012-01-10 07:48:40 51°13.815 2°55.639 13.0456 0.025952 0.14693 -2.458615
2012-01-10 07:48:45 51°13.822 2°55.635 13.0469 0.025952 0.146933 -2.458615
2012-01-10 07:48:50 51°13.829 2°55.632 13.0458 0.025952 0.146933 -2.458615
2012-01-10 07:48:54 51°13.835 2°55.63 13.052 0.025952 0.146933 -2.458615
2012-01-10 07:49:00 51°13.844 2°55.627 13.048 0.025952 0.146935 -2.458615
2012-01-10 07:49:05 51°13.851 2°55.626 13.0484 0.025952 0.146935 -2.458615
2012-01-10 07:49:10 51°13.858 2°55.624 13.0479 0.025952 0.146935 -2.458615
2012-01-10 07:49:14 51°13.864 2°55.623 13.049 0.025952 0.146938 -2.458615
2012-01-10 07:49:20 51°13.872 2°55.622 13.0552 0.025952 0.146938 -2.458615
2012-01-10 07:49:25 51°13.879 2°55.622 13.0608 0.025952 0.146941 -2.458615
2012-01-10 07:49:30 51°13.886 2°55.622 13.0587 0.025952 0.146941 -2.458615
2012-01-10 07:49:34 51°13.891 2°55.622 13.0611 0.025952 0.146941 -2.458615
2012-01-10 07:49:40 51°13.899 2°55.623 13.0594 0.025952 0.146941 -2.458615
2012-01-10 07:49:45 51°13.905 2°55.624 13.0605 0.025952 0.146941 -2.458615
2012-01-10 07:49:50 51°13.911 2°55.625 13.0601 0.025952 0.146943 -2.458615
2012-01-10 07:49:54 51°13.916 2°55.626 13.0606 0.025952 0.146946 -2.458615
2012-01-10 07:50:00 51°13.922 2°55.629 13.0605 0.025952 0.146946 -2.458615
2012-01-10 07:50:05 51°13.927 2°55.631 13.0611 0.025952 0.146946 -2.458615
2012-01-10 07:50:10 51°13.932 2°55.633 13.0599 0.025952 0.146946 -2.458615
2012-01-10 07:50:15 51°13.937 2°55.635 13.0602 0.025952 0.146948 -2.458615
2012-01-10 07:50:20 51°13.941 2°55.638 13.0589 0.025952 0.146948 -2.458615
2012-01-10 07:50:25 51°13.946 2°55.641 13.0596 0.025952 0.146948 -2.458615
2012-01-10 07:50:30 51°13.95 2°55.644 13.0606 0.025952 0.146951 -2.458615
2012-01-10 07:50:34 51°13.953 2°55.646 13.0648 0.025952 0.146951 -2.458615
2012-01-10 07:50:40 51°13.957 2°55.65 13.0665 0.025849 0.146366 -2.458615
2012-01-10 07:50:45 51°13.96 2°55.653 13.0673 0.025849 0.146369 -2.458615
2012-01-10 07:50:50 51°13.963 2°55.656 13.0695 0.025849 0.146369 -2.458615
2012-01-10 07:50:54 51°13.965 2°55.659 13.0588 0.025849 0.146369 -2.458615
2012-01-10 07:51:00 51°13.968 2°55.662 13.0613 0.025849 0.146372 -2.458615
2012-01-10 07:51:05 51°13.97 2°55.664 13.078 0.025849 0.146372 -2.458615
2012-01-10 07:51:10 51°13.971 2°55.666 13.1001 0.025849 0.146372 -2.458615
2012-01-10 07:51:14 51°13.972 2°55.667 13.0916 0.025849 0.146372 -2.458615
2012-01-10 07:51:20 51°13.973 2°55.668 13.0907 0.025849 0.146372 -2.458615
2012-01-10 07:51:25 51°13.974 2°55.668 13.0952 0.025849 0.146374 -2.458615
2012-01-10 07:51:30 51°13.974 2°55.667 13.0902 0.025849 0.146374 -2.458615
2012-01-10 07:51:34 51°13.974 2°55.665 13.0805 0.025849 0.146374 -2.458615
2012-01-10 07:51:40 51°13.975 2°55.663 13.0803 0.025849 0.146374 -2.458615
2012-01-10 07:51:45 51°13.975 2°55.66 13.0313 0.025849 0.146374 -2.458615
2012-01-10 07:51:50 51°13.976 2°55.657 12.9608 0.025849 0.146377 -2.458615
2012-01-10 07:51:54 51°13.976 2°55.654 12.9942 0.025849 0.146377 -2.458615
2012-01-10 07:52:00 51°13.977 2°55.649 13.011 0.025849 0.146377 -2.458615
2012-01-10 07:52:05 51°13.978 2°55.644 13.0255 0.025849 0.146377 -2.458615
2012-01-10 07:52:10 51°13.979 2°55.638 13.0106 0.025849 0.146377 -2.458615
2012-01-10 07:52:14 51°13.98 2°55.634 13.0213 0.025849 0.146377 -2.458615
2012-01-10 07:52:20 51°13.982 2°55.626 13.0442 0.025849 0.146379 -2.458615
2012-01-10 07:52:24 51°13.984 2°55.62 13.0319 0.025849 0.146379 -2.458615
2012-01-10 07:52:30 51°13.987 2°55.61 13.0004 0.025849 0.146379 -2.458615
2012-01-10 07:52:34 51°13.99 2°55.603 12.9866 0.025849 0.146379 -2.458615
2012-01-10 07:52:40 51°13.995 2°55.593 12.9491 0.025849 0.146379 -2.458615
2012-01-10 07:52:45 51°14 2°55.584 12.9307 0.025849 0.146379 -2.458615
2012-01-10 07:52:50 51°14.005 2°55.575 12.9073 0.025849 0.146382 -2.458615
2012-01-10 07:52:54 51°14.009 2°55.567 12.9025 0.025849 0.146382 -2.458615
2012-01-10 07:52:59 51°14.016 2°55.558 12.8953 0.025849 0.146382 -2.458615
2012-01-10 07:53:05 51°14.024 2°55.546 12.8916 0.025849 0.146382 -2.458615
2012-01-10 07:53:10 51°14.031 2°55.536 12.8917 0.025849 0.146382 -2.458615
2012-01-10 07:53:14 51°14.037 2°55.529 12.8956 0.025849 0.146385 -2.458615
2012-01-10 07:53:19 51°14.046 2°55.519 12.9208 0.025849 0.146385 -2.458615
2012-01-10 07:53:24 51°14.055 2°55.51 12.9251 0.025849 0.146385 -2.458615
2012-01-10 07:53:29 51°14.064 2°55.5 12.9072 0.025849 0.146385 -2.458615
2012-01-10 07:53:34 51°14.074 2°55.49 12.9128 0.025849 0.146385 -2.458615
2012-01-10 07:53:39 51°14.084 2°55.48 12.9066 0.025849 0.146385 -2.458615
2012-01-10 07:53:45 51°14.096 2°55.467 12.8996 0.025849 0.146387 -2.458615
2012-01-10 07:53:50 51°14.106 2°55.457 12.8735 0.025849 0.146387 -2.458615
2012-01-10 07:53:54 51°14.115 2°55.449 12.8719 0.025849 0.146387 -2.458615
2012-01-10 07:54:00 51°14.128 2°55.436 12.828 0.025849 0.146387 -2.458615
2012-01-10 07:54:05 51°14.139 2°55.426 12.9057 0.025849 0.14639 -2.458615
2012-01-10 07:54:10 51°14.149 2°55.415 12.8882 0.025849 0.14639 -2.458615
2012-01-10 07:54:14 51°14.158 2°55.406 12.9163 0.025849 0.14639 -2.458615
2012-01-10 07:54:20 51°14.171 2°55.393 12.9644 0.025849 0.146392 -2.458615
2012-01-10 07:54:25 51°14.183 2°55.382 12.8784 0.025849 0.146392 -2.458615
2012-01-10 07:54:30 51°14.194 2°55.37 12.8038 0.025849 0.14639 -2.458615
2012-01-10 07:54:34 51°14.203 2°55.361 12.8658 0.025849 0.14639 -2.458615
2012-01-10 07:54:40 51°14.216 2°55.347 12.8723 0.025849 0.146392 -2.458615
2012-01-10 07:54:45 51°14.228 2°55.335 12.8711 0.025849 0.146395 -2.458615
2012-01-10 07:54:50 51°14.239 2°55.324 12.8704 0.025849 0.146398 -2.458615
2012-01-10 07:54:55 51°14.25 2°55.313 12.8671 0.025849 0.146398 -2.458615
2012-01-10 07:55:00 51°14.262 2°55.301 12.8974 0.025849 0.146398 -2.458615
2012-01-10 07:55:05 51°14.273 2°55.29 12.9424 0.025849 0.146398 -2.458615
2012-01-10 07:55:10 51°14.285 2°55.279 12.9192 0.025849 0.1464 -2.458615
2012-01-10 07:55:14 51°14.295 2°55.27 12.893 0.025849 0.1464 -2.458615
2012-01-10 07:55:19 51°14.306 2°55.259 12.9158 0.025849 0.146403 -2.458615
2012-01-10 07:55:25 51°14.321 2°55.246 12.9379 0.025849 0.146403 -2.458615
2012-01-10 07:55:30 51°14.333 2°55.234 12.9317 0.025849 0.146405 -2.458615
2012-01-10 07:55:34 51°14.342 2°55.224 12.939 0.025849 0.146405 -2.458615
2012-01-10 07:55:40 51°14.357 2°55.209 12.8619 0.025849 0.146405 -2.458615
2012-01-10 07:55:45 51°14.369 2°55.197 12.9035 0.025849 0.146405 -2.458615
2012-01-10 07:55:50 51°14.382 2°55.186 12.9307 0.025849 0.146408 -2.458615
2012-01-10 07:55:54 51°14.392 2°55.176 12.9592 0.025849 0.146408 -2.458615
2012-01-10 07:56:00 51°14.407 2°55.161 12.9659 0.025849 0.146411 -2.458615
2012-01-10 07:56:05 51°14.419 2°55.148 12.947 0.025849 0.146411 -2.458615
2012-01-10 07:56:10 51°14.432 2°55.134 12.856 0.025849 0.146411 -2.458615
2012-01-10 07:56:14 51°14.442 2°55.124 12.8309 0.025849 0.146411 -2.458615
2012-01-10 07:56:19 51°14.454 2°55.11 12.8678 0.025849 0.146413 -2.458615
2012-01-10 07:56:24 51°14.467 2°55.098 12.9126 0.025849 0.146413 -2.458615
2012-01-10 07:56:30 51°14.483 2°55.082 12.8793 0.025849 0.146416 -2.458615
2012-01-10 07:56:34 51°14.493 2°55.072 12.8901 0.025849 0.146416 -2.458615
2012-01-10 07:56:39 51°14.506 2°55.059 12.9161 0.025849 0.146416 -2.458615
2012-01-10 07:56:44 51°14.519 2°55.045 12.8452 0.025849 0.146418 -2.458615
2012-01-10 07:56:50 51°14.535 2°55.028 12.8933 0.025849 0.146418 -2.458615
2012-01-10 07:56:54 51°14.545 2°55.017 12.9027 0.025849 0.146418 -2.458615
2012-01-10 07:56:59 51°14.557 2°55.002 12.9203 0.025849 0.146421 -2.458615
2012-01-10 07:57:04 51°14.571 2°54.988 12.9361 0.025849 0.146421 -2.458615
2012-01-10 07:57:09 51°14.584 2°54.973 12.7943 0.025849 0.146424 -2.458615
2012-01-10 07:57:14 51°14.597 2°54.958 12.8325 0.025849 0.146424 -2.458615
2012-01-10 07:57:18 51°14.608 2°54.947 12.9252 0.025849 0.146426 -2.458615
2012-01-10 07:57:23 51°14.621 2°54.932 12.8393 0.025849 0.146429 -2.458615
2012-01-10 07:57:28 51°14.635 2°54.918 12.8213 0.025849 0.146429 -2.458615
2012-01-10 07:57:33 51°14.649 2°54.904 12.8799 0.025849 0.146429 -2.458615
2012-01-10 07:57:38 51°14.662 2°54.89 12.9153 0.025849 0.146431 -2.458615
2012-01-10 07:57:42 51°14.674 2°54.878 12.8936 0.025849 0.146434 -2.458615
2012-01-10 07:57:47 51°14.687 2°54.863 12.866 0.025849 0.146434 -2.458615
2012-01-10 07:57:52 51°14.701 2°54.848 12.9007 0.025849 0.146437 -2.458615
2012-01-10 07:57:58 51°14.717 2°54.83 12.8083 0.025849 0.146437 -2.458615
2012-01-10 07:58:02 51°14.727 2°54.817 12.81 0.025849 0.146437 -2.458615
2012-01-10 07:58:07 51°14.741 2°54.802 12.8392 0.025849 0.146434 -2.458615
2012-01-10 07:58:12 51°14.755 2°54.787 12.8213 0.025849 0.146437 -2.458615
2012-01-10 07:58:17 51°14.769 2°54.773 12.8094 0.025849 0.146439 -2.458615
2012-01-10 07:58:22 51°14.783 2°54.757 12.8789 0.025849 0.146442 -2.458615
2012-01-10 07:58:26 51°14.793 2°54.744 12.8926 0.025849 0.146444 -2.458615
2012-01-10 07:58:31 51°14.807 2°54.728 12.8333 0.025849 0.146444 -2.458615
2012-01-10 07:58:36 51°14.82 2°54.711 12.8629 0.025849 0.146444 -2.458615
2012-01-10 07:58:41 51°14.833 2°54.695 12.8374 0.025849 0.146447 -2.458615
2012-01-10 07:58:46 51°14.847 2°54.678 12.8759 0.025849 0.14645 -2.458615
2012-01-10 07:58:51 51°14.86 2°54.661 12.8692 0.025849 0.14645 -2.458615
2012-01-10 07:58:56 51°14.873 2°54.644 12.8745 0.025849 0.146452 -2.458615
2012-01-10 07:59:01 51°14.887 2°54.628 12.8757 0.025849 0.146452 -2.458615
2012-01-10 07:59:06 51°14.9 2°54.612 12.9018 0.025849 0.146455 -2.458615
2012-01-10 07:59:11 51°14.913 2°54.595 12.8612 0.025849 0.146457 -2.458615
2012-01-10 07:59:16 51°14.926 2°54.577 12.8541 0.025849 0.146457 -2.458615
2012-01-10 07:59:21 51°14.939 2°54.56 12.8367 0.025849 0.14646 -2.458615
2012-01-10 07:59:26 51°14.952 2°54.543 12.8688 0.025849 0.14646 -2.458615
2012-01-10 07:59:31 51°14.965 2°54.526 12.8834 0.025849 0.14646 -2.458615
2012-01-10 07:59:36 51°14.978 2°54.51 12.8432 0.025849 0.146463 -2.458615
2012-01-10 07:59:41 51°14.992 2°54.495 12.8546 0.025849 0.146465 -2.458615
2012-01-10 07:59:46 51°15.005 2°54.479 12.8393 0.025849 0.146465 -2.458615
2012-01-10 07:59:51 51°15.019 2°54.463 12.9077 0.025747 0.145883 -2.458615
2012-01-10 07:59:57 51°15.035 2°54.444 12.9164 0.025747 0.145886 -2.458615
2012-01-10 08:00:01 51°15.045 2°54.43 12.8895 0.025747 0.145886 -2.458615
2012-01-10 08:00:06 51°15.058 2°54.414 12.839 0.025747 0.145886 -2.458615
2012-01-10 08:00:11 51°15.071 2°54.396 12.8597 0.025747 0.145888 -2.458615
2012-01-10 08:00:16 51°15.084 2°54.38 12.858 0.025747 0.145891 -2.458615
2012-01-10 08:00:21 51°15.096 2°54.363 12.8799 0.025747 0.145891 -2.458615
2012-01-10 08:00:26 51°15.109 2°54.346 12.8887 0.025747 0.145893 -2.458615
2012-01-10 08:00:31 51°15.122 2°54.329 12.8929 0.025747 0.145893 -2.458615
2012-01-10 08:00:36 51°15.135 2°54.312 12.8624 0.025747 0.145893 -2.458615
2012-01-10 08:00:42 51°15.15 2°54.291 12.8691 0.025747 0.145896 -2.458615
2012-01-10 08:00:46 51°15.159 2°54.276 12.8983 0.025747 0.145898 -2.458615
2012-01-10 08:00:51 51°15.172 2°54.259 12.8847 0.025747 0.145901 -2.458615
2012-01-10 08:00:56 51°15.184 2°54.241 12.86 0.025747 0.145901 -2.458615
2012-01-10 08:01:01 51°15.197 2°54.223 12.8462 0.025747 0.145901 -2.458615
2012-01-10 08:01:06 51°15.209 2°54.206 12.8811 0.025747 0.145901 -2.458615
2012-01-10 08:01:11 51°15.222 2°54.188 12.8733 0.025747 0.145904 -2.458615
2012-01-10 08:01:16 51°15.234 2°54.17 12.8566 0.025747 0.145906 -2.458615
2012-01-10 08:01:21 51°15.247 2°54.153 12.8885 0.025747 0.145906 -2.458615
2012-01-10 08:01:26 51°15.26 2°54.136 12.8958 0.025747 0.145906 -2.458615
2012-01-10 08:01:31 51°15.272 2°54.119 12.8892 0.025747 0.145906 -2.458615
2012-01-10 08:01:36 51°15.285 2°54.102 12.8541 0.025747 0.145909 -2.458615
2012-01-10 08:01:41 51°15.297 2°54.085 12.8791 0.025747 0.145909 -2.458615
2012-01-10 08:01:46 51°15.311 2°54.068 12.8938 0.025747 0.145909 -2.458615
2012-01-10 08:01:51 51°15.323 2°54.051 12.9079 0.025747 0.145911 -2.458615
2012-01-10 08:01:56 51°15.336 2°54.034 12.8986 0.025747 0.145914 -2.458615
2012-01-10 08:02:01 51°15.349 2°54.017 12.8639 0.025747 0.145914 -2.458615
2012-01-10 08:02:06 51°15.362 2°54 12.8813 0.025747 0.145914 -2.458615
2012-01-10 08:02:11 51°15.375 2°53.984 12.9182 0.025747 0.145917 -2.458615
2012-01-10 08:02:17 51°15.391 2°53.965 12.8873 0.025747 0.145917 -2.458615
2012-01-10 08:02:21 51°15.401 2°53.951 12.898 0.025747 0.145917 -2.458615
2012-01-10 08:02:26 51°15.414 2°53.934 12.909 0.025747 0.145919 -2.458615
2012-01-10 08:02:31 51°15.426 2°53.917 12.8938 0.025747 0.145919 -2.458615
2012-01-10 08:02:36 51°15.439 2°53.9 12.9057 0.025747 0.145919 -2.458615
2012-01-10 08:02:41 51°15.452 2°53.883 12.897 0.025747 0.145919 -2.458615
2012-01-10 08:02:46 51°15.465 2°53.867 12.882 0.025747 0.145922 -2.458615
2012-01-10 08:02:51 51°15.478 2°53.85 12.918 0.025747 0.145919 -2.458615
2012-01-10 08:02:56 51°15.491 2°53.833 12.9015 0.025747 0.145919 -2.458615
2012-01-10 08:03:01 51°15.503 2°53.816 12.9092 0.025747 0.145922 -2.458615
2012-01-10 08:03:06 51°15.516 2°53.799 12.9106 0.025747 0.145924 -2.458615
2012-01-10 08:03:11 51°15.529 2°53.782 12.8953 0.025747 0.145924 -2.458615
2012-01-10 08:03:16 51°15.542 2°53.766 12.9209 0.025747 0.145924 -2.458615
2012-01-10 08:03:21 51°15.555 2°53.75 12.9076 0.025747 0.145924 -2.458615
2012-01-10 08:03:26 51°15.569 2°53.734 12.8747 0.025747 0.145924 -2.458615
2012-01-10 08:03:31 51°15.582 2°53.717 12.9066 0.025747 0.145924 -2.458615
2012-01-10 08:03:36 51°15.595 2°53.701 12.9006 0.025747 0.145924 -2.458615
2012-01-10 08:03:41 51°15.609 2°53.686 12.8829 0.025747 0.145924 -2.458615
2012-01-10 08:03:46 51°15.622 2°53.67 12.8802 0.025747 0.145924 -2.458615
2012-01-10 08:03:51 51°15.636 2°53.656 12.9146 0.025747 0.145924 -2.458615
2012-01-10 08:03:56 51°15.65 2°53.642 12.9097 0.025747 0.145927 -2.458615
2012-01-10 08:04:01 51°15.665 2°53.629 12.9077 0.025747 0.145927 -2.458615
2012-01-10 08:04:06 51°15.679 2°53.615 12.9137 0.025747 0.145924 -2.458615
2012-01-10 08:04:11 51°15.694 2°53.603 12.9209 0.025747 0.145927 -2.458615
2012-01-10 08:04:16 51°15.708 2°53.589 12.9283 0.025747 0.145927 -2.458615
2012-01-10 08:04:21 51°15.722 2°53.577 12.8671 0.025747 0.145927 -2.458615
2012-01-10 08:04:26 51°15.737 2°53.563 12.9219 0.025747 0.145927 -2.458615
2012-01-10 08:04:31 51°15.751 2°53.552 12.9301 0.025747 0.145927 -2.458615
2012-01-10 08:04:36 51°15.766 2°53.54 12.9199 0.025747 0.145927 -2.458615
2012-01-10 08:04:41 51°15.781 2°53.528 12.9026 0.025747 0.145927 -2.458615
2012-01-10 08:04:46 51°15.796 2°53.516 12.9172 0.025747 0.145927 -2.458615
2012-01-10 08:04:51 51°15.811 2°53.505 12.8994 0.025747 0.145927 -2.458615
2012-01-10 08:04:56 51°15.826 2°53.494 12.9014 0.025747 0.145924 -2.458615
2012-01-10 08:05:02 51°15.844 2°53.482 12.9118 0.025747 0.145924 -2.458615
2012-01-10 08:05:06 51°15.856 2°53.474 12.9263 0.025747 0.145927 -2.458615
2012-01-10 08:05:11 51°15.871 2°53.465 12.9234 0.025747 0.145927 -2.458615
2012-01-10 08:05:16 51°15.887 2°53.455 12.9258 0.025747 0.145927 -2.458615
2012-01-10 08:05:21 51°15.902 2°53.446 12.9379 0.025747 0.145927 -2.458615
2012-01-10 08:05:26 51°15.918 2°53.437 12.963 0.025747 0.145927 -2.458615
2012-01-10 08:05:31 51°15.933 2°53.428 12.9422 0.025747 0.145927 -2.458615
2012-01-10 08:05:36 51°15.948 2°53.418 12.9321 0.025747 0.145927 -2.458615
2012-01-10 08:05:41 51°15.962 2°53.406 12.9604 0.025747 0.145924 -2.458615
2012-01-10 08:05:46 51°15.977 2°53.395 12.9114 0.025747 0.145927 -2.458615
2012-01-10 08:05:51 51°15.992 2°53.384 12.8976 0.025747 0.145924 -2.458615
2012-01-10 08:05:56 51°16.007 2°53.371 12.9569 0.025747 0.145924 -2.458615
2012-01-10 08:06:01 51°16.021 2°53.359 12.9245 0.025747 0.145924 -2.458615
2012-01-10 08:06:06 51°16.035 2°53.347 12.9393 0.025747 0.145924 -2.458615
2012-01-10 08:06:11 51°16.05 2°53.334 12.9421 0.025747 0.145927 -2.458615
2012-01-10 08:06:16 51°16.065 2°53.322 12.9275 0.025747 0.145924 -2.458615
2012-01-10 08:06:21 51°16.079 2°53.31 12.9347 0.025747 0.145924 -2.458615
2012-01-10 08:06:26 51°16.094 2°53.298 12.9468 0.025747 0.145924 -2.458615
2012-01-10 08:06:31 51°16.108 2°53.286 12.945 0.025747 0.145924 -2.458615
2012-01-10 08:06:36 51°16.123 2°53.274 12.9538 0.025747 0.145924 -2.458615
2012-01-10 08:06:41 51°16.137 2°53.262 12.9609 0.025747 0.145924 -2.458615
2012-01-10 08:06:46 51°16.152 2°53.249 12.9897 0.025747 0.145924 -2.458615
2012-01-10 08:06:51 51°16.166 2°53.236 12.9617 0.025747 0.145924 -2.458615
2012-01-10 08:06:57 51°16.182 2°53.219 12.9377 0.025747 0.145924 -2.458615
2012-01-10 08:07:01 51°16.193 2°53.207 12.9325 0.025747 0.145924 -2.458615
2012-01-10 08:07:06 51°16.207 2°53.193 12.9413 0.025747 0.145924 -2.458615
2012-01-10 08:07:11 51°16.22 2°53.177 12.9361 0.025747 0.145924 -2.458615
2012-01-10 08:07:16 51°16.234 2°53.162 12.9095 0.025747 0.145924 -2.458615
2012-01-10 08:07:21 51°16.247 2°53.146 12.9492 0.025747 0.145924 -2.458615
2012-01-10 08:07:26 51°16.26 2°53.131 12.9373 0.025747 0.145922 -2.458615
2012-01-10 08:07:31 51°16.274 2°53.116 12.2466 0.025747 0.145922 -2.458615
2012-01-10 08:07:36 51°16.287 2°53.101 9.783 0.025747 0.145888 -2.458615
2012-01-10 08:07:41 51°16.301 2°53.086 9.3611 0.025644 0.145293 -2.458615
2012-01-10 08:07:46 51°16.314 2°53.07 8.9039 0.028523 0.161866 -2.458615
2012-01-10 08:07:51 51°16.327 2°53.055 8.7726 3.850254 30.86508 -2.458615
2012-01-10 08:07:56 51°16.341 2°53.041 8.6337 3.996367 32.974784 -2.458615
2012-01-10 08:08:01 51°16.355 2°53.027 8.4494 3.996367 32.974784 -2.458615
2012-01-10 08:08:06 51°16.368 2°53.013 8.3864 3.980835 33.746417 -2.458615
2012-01-10 08:08:11 51°16.382 2°53 8.33 3.75385 32.659018 -2.458615
2012-01-10 08:08:16 51°16.396 2°52.986 8.2496 3.672658 32.619532 -2.458615
2012-01-10 08:08:21 51°16.41 2°52.972 8.2289 3.614777 32.65522 -2.458615
2012-01-10 08:08:26 51°16.424 2°52.958 8.2027 3.569635 32.666099 -2.458615
2012-01-10 08:08:31 51°16.438 2°52.944 8.1738 3.569635 32.666099 -2.458615
2012-01-10 08:08:36 51°16.452 2°52.93 8.1685 3.524497 32.573645 -2.458615
2012-01-10 08:08:41 51°16.466 2°52.916 8.1075 3.480913 32.346476 -2.458615
2012-01-10 08:08:46 51°16.479 2°52.902 8.0942 3.470564 32.437208 -2.458615
2012-01-10 08:08:51 51°16.494 2°52.889 8.081 3.445306 32.308905 -2.458615
2012-01-10 08:08:56 51°16.508 2°52.875 8.0847 3.520053 33.189702 -2.458615
2012-01-10 08:09:01 51°16.522 2°52.862 8.0822 3.520053 33.189702 -2.458615
2012-01-10 08:09:06 51°16.536 2°52.849 8.0788 3.501418 33.067764 -2.458615
2012-01-10 08:09:11 51°16.55 2°52.836 8.0703 3.491273 33.015028 -2.458615
2012-01-10 08:09:17 51°16.567 2°52.82 8.0448 3.480403 32.946874 -2.458615
2012-01-10 08:09:21 51°16.578 2°52.81 8.0446 3.473261 32.929776 -2.458615
2012-01-10 08:09:26 51°16.592 2°52.797 8.0701 3.466532 32.898201 -2.458615
2012-01-10 08:09:31 51°16.606 2°52.785 8.0455 3.466532 32.898201 -2.458615
2012-01-10 08:09:36 51°16.62 2°52.772 8.0613 3.459183 32.845497 -2.458615
2012-01-10 08:09:42 51°16.637 2°52.756 8.0333 3.44852 32.750129 -2.458615
2012-01-10 08:09:46 51°16.648 2°52.746 8.0541 3.44293 32.703956 -2.458615
2012-01-10 08:09:51 51°16.662 2°52.733 8.065 3.44055 32.700127 -2.458615
2012-01-10 08:09:56 51°16.676 2°52.721 8.0601 3.437962 32.681334 -2.458615
2012-01-10 08:10:01 51°16.69 2°52.708 8.0436 3.437962 32.681334 -2.458615
2012-01-10 08:10:06 51°16.704 2°52.696 8.042 3.436099 32.671886 -2.458615
2012-01-10 08:10:11 51°16.718 2°52.683 8.0577 3.43496 32.664974 -2.458615
2012-01-10 08:10:16 51°16.732 2°52.671 8.0564 3.435995 32.683571 -2.458615
2012-01-10 08:10:21 51°16.745 2°52.659 8.0459 3.437134 32.703271 -2.458615
2012-01-10 08:10:26 51°16.759 2°52.647 8.0346 3.435892 32.692708 -2.458615
2012-01-10 08:10:31 51°16.773 2°52.635 8.038 3.435892 32.692708 -2.458615
2012-01-10 08:10:36 51°16.787 2°52.623 8.0323 3.436099 32.698306 -2.458615
2012-01-10 08:10:41 51°16.801 2°52.612 8.034 2.868227 26.781611 -2.458615
2012-01-10 08:10:46 51°16.815 2°52.6 8.0424 3.458045 32.935426 -2.458615
2012-01-10 08:10:51 51°16.829 2°52.589 8.0234 3.454939 32.904298 -2.458615
2012-01-10 08:10:56 51°16.842 2°52.577 8.0437 3.455871 32.921884 -2.458615
2012-01-10 08:11:01 51°16.856 2°52.566 8.0274 3.455871 32.921884 -2.458615
2012-01-10 08:11:06 51°16.87 2°52.554 8.0036 3.455561 32.923755 -2.458615
2012-01-10 08:11:11 51°16.884 2°52.543 8.016 3.456492 32.941353 -2.458615
2012-01-10 08:11:16 51°16.898 2°52.531 8.028 3.455457 32.932117 -2.458615
2012-01-10 08:11:21 51°16.912 2°52.52 8.0101 3.454836 32.929843 -2.458615
2012-01-10 08:11:26 51°16.926 2°52.509 8.0153 3.455354 32.937903 -2.458615
2012-01-10 08:11:31 51°16.94 2°52.498 7.9934 3.455354 32.937903 -2.458615
2012-01-10 08:11:36 51°16.953 2°52.487 7.9976 3.453283 32.920287 -2.458615
2012-01-10 08:11:41 51°16.967 2°52.475 7.9959 3.451938 32.915501 -2.458615
2012-01-10 08:11:46 51°16.981 2°52.464 7.9943 3.448936 32.888873 -2.458615
2012-01-10 08:11:51 51°16.995 2°52.452 7.9955 3.44583 32.857709 -2.458615
2012-01-10 08:11:56 51°17.008 2°52.44 7.9872 3.444174 32.842749 -2.458615
2012-01-10 08:12:02 51°17.025 2°52.426 7.9882 3.444174 32.842749 -2.458615
2012-01-10 08:12:06 51°17.036 2°52.417 7.9795 3.443346 32.840849 -2.458615
2012-01-10 08:12:11 51°17.05 2°52.405 7.9877 3.442518 32.837231 -2.458615
2012-01-10 08:12:16 51°17.064 2°52.393 7.9892 3.440551 32.820693 -2.458615
2012-01-10 08:12:21 51°17.077 2°52.381 7.9835 3.438584 32.805869 -2.458615
2012-01-10 08:12:26 51°17.091 2°52.368 7.9804 3.434858 32.769828 -2.458615
2012-01-10 08:12:31 51°17.105 2°52.356 7.9705 3.434858 32.769828 -2.458615
2012-01-10 08:12:36 51°17.118 2°52.343 7.9807 3.432166 32.744749 -2.458615
2012-01-10 08:12:41 51°17.132 2°52.331 7.9758 3.431856 32.746601 -2.458615
2012-01-10 08:12:46 51°17.145 2°52.318 7.9832 3.429372 32.721998 -2.458615
2012-01-10 08:12:51 51°17.159 2°52.305 7.9692 3.428336 32.712746 -2.458615
2012-01-10 08:12:56 51°17.172 2°52.292 7.9701 3.426266 32.693385 -2.458615
2012-01-10 08:13:01 51°17.186 2°52.279 7.9731 3.426266 32.693385 -2.458615
2012-01-10 08:13:06 51°17.199 2°52.266 7.9633 3.425128 32.684746 -2.458615
2012-01-10 08:13:11 51°17.213 2°52.253 7.9619 3.423989 32.675251 -2.458615
2012-01-10 08:13:16 51°17.226 2°52.24 7.9575 3.421608 32.650887 -2.458615
2012-01-10 08:13:21 51°17.24 2°52.227 7.9613 3.421505 32.65321 -2.458615
2012-01-10 08:13:26 51°17.254 2°52.214 7.964 3.420056 32.640422 -2.458615
2012-01-10 08:13:31 51°17.267 2°52.202 7.9612 3.420056 32.640422 -2.458615
2012-01-10 08:13:36 51°17.281 2°52.189 7.9555 3.418917 32.632633 -2.458615
2012-01-10 08:13:41 51°17.295 2°52.176 7.9523 3.418917 32.636052 -2.458615
2012-01-10 08:13:46 51°17.308 2°52.164 7.9592 3.418503 32.634229 -2.458615
2012-01-10 08:13:51 51°17.322 2°52.152 7.9509 3.417675 32.628018 -2.458615
2012-01-10 08:13:56 51°17.336 2°52.141 7.9449 3.416743 32.619001 -2.458615
2012-01-10 08:14:02 51°17.353 2°52.128 7.9385 3.416743 32.619001 -2.458615
2012-01-10 08:14:06 51°17.364 2°52.119 7.93 3.415708 32.608033 -2.458615
2012-01-10 08:14:11 51°17.379 2°52.109 7.9275 3.415605 32.606936 -2.458615
2012-01-10 08:14:16 51°17.393 2°52.098 7.9331 3.415294 32.607917 -2.458615
2012-01-10 08:14:22 51°17.41 2°52.086 7.9254 3.414363 32.599753 -2.458615
2012-01-10 08:14:26 51°17.421 2°52.078 7.9193 3.412706 32.586472 -2.458615
2012-01-10 08:14:31 51°17.436 2°52.068 7.9167 3.412706 32.586472 -2.458615
2012-01-10 08:14:36 51°17.45 2°52.057 7.9091 3.410947 32.574653 -2.458615
2012-01-10 08:14:41 51°17.464 2°52.046 7.9027 3.409601 32.565512 -2.458615
2012-01-10 08:14:46 51°17.478 2°52.035 7.8923 3.408152 32.553565 -2.458615
2012-01-10 08:14:51 51°17.492 2°52.025 7.8932 3.406186 32.536983 -2.458615
2012-01-10 08:14:56 51°17.506 2°52.014 7.8923 3.402149 32.4976 -2.458615
2012-01-10 08:15:01 51°17.52 2°52.004 7.8847 3.402149 32.4976 -2.458615
2012-01-10 08:15:06 51°17.534 2°51.993 7.8743 3.399561 32.476132 -2.458615
2012-01-10 08:15:11 51°17.548 2°51.982 7.8714 3.397905 32.464537 -2.458615
2012-01-10 08:15:16 51°17.562 2°51.971 7.8682 3.395524 32.446108 -2.458615
2012-01-10 08:15:21 51°17.576 2°51.959 7.8613 3.390867 32.402677 -2.458615
2012-01-10 08:15:26 51°17.589 2°51.947 7.8538 3.387658 32.373755 -2.458615
2012-01-10 08:15:31 51°17.603 2°51.935 7.857 3.387658 32.373755 -2.458615
2012-01-10 08:15:36 51°17.617 2°51.924 7.8515 3.382379 32.321183 -2.458615
2012-01-10 08:15:41 51°17.631 2°51.913 7.8394 3.378446 32.286269 -2.458615
2012-01-10 08:15:46 51°17.645 2°51.902 7.8304 3.375859 32.265615 -2.458615
2012-01-10 08:15:51 51°17.659 2°51.89 7.8279 3.373478 32.245456 -2.458615
2012-01-10 08:15:57 51°17.675 2°51.876 7.8253 3.368407 32.199297 -2.458615
2012-01-10 08:16:01 51°17.686 2°51.867 7.826 3.368407 32.199297 -2.458615
2012-01-10 08:16:06 51°17.7 2°51.855 7.82 3.36644 32.181828 -2.458615
2012-01-10 08:16:11 51°17.714 2°51.843 7.8115 3.362921 32.150429 -2.458615
2012-01-10 08:16:16 51°17.728 2°51.831 7.8112 3.361576 32.143765 -2.458615
2012-01-10 08:16:21 51°17.741 2°51.818 7.8182 3.355573 32.087697 -2.458615
2012-01-10 08:16:26 51°17.755 2°51.805 7.8143 3.353813 32.074098 -2.458615
2012-01-10 08:16:31 51°17.769 2°51.793 7.812 3.353813 32.074098 -2.458615
2012-01-10 08:16:36 51°17.782 2°51.78 7.805 3.420989 32.792007 -2.458615
2012-01-10 08:16:42 51°17.798 2°51.765 7.7971 3.422335 32.813233 -2.458615
2012-01-10 08:16:46 51°17.809 2°51.754 7.7997 3.419333 32.786462 -2.458615
2012-01-10 08:16:51 51°17.823 2°51.741 7.7959 3.417159 32.765914 -2.458615
2012-01-10 08:16:56 51°17.836 2°51.728 7.793 3.415399 32.748909 -2.458615
2012-01-10 08:17:01 51°17.85 2°51.715 7.7911 3.415399 32.748909 -2.458615
2012-01-10 08:17:06 51°17.864 2°51.702 7.8013 3.41395 32.736071 -2.458615
2012-01-10 08:17:11 51°17.877 2°51.689 7.7967 3.41188 32.716622 -2.458615
2012-01-10 08:17:16 51°17.891 2°51.676 7.7947 3.41012 32.703922 -2.458615
2012-01-10 08:17:21 51°17.904 2°51.664 7.7926 3.409189 32.695728 -2.458615
2012-01-10 08:17:26 51°17.918 2°51.652 7.7968 3.40774 32.684607 -2.458615
2012-01-10 08:17:31 51°17.932 2°51.64 7.7916 3.40774 32.684607 -2.458615
2012-01-10 08:17:36 51°17.946 2°51.629 7.795 3.406808 32.676412 -2.458615
2012-01-10 08:17:41 51°17.96 2°51.618 7.7874 3.405877 32.666495 -2.458615
2012-01-10 08:17:46 51°17.974 2°51.606 7.7896 3.405773 32.666253 -2.458615
2012-01-10 08:17:51 51°17.988 2°51.596 7.7928 3.404842 32.657197 -2.458615
2012-01-10 08:17:56 51°18.002 2°51.584 7.7927 3.404738 32.656955 -2.458615
2012-01-10 08:18:01 51°18.016 2°51.572 7.7816 3.404738 32.656955 -2.458615
2012-01-10 08:18:06 51°18.03 2°51.561 7.7784 3.404324 32.652548 -2.458615
2012-01-10 08:18:11 51°18.044 2°51.55 7.7725 3.40422 32.652306 -2.458615
2012-01-10 08:18:17 51°18.061 2°51.536 7.7691 3.403599 32.648276 -2.458615
2012-01-10 08:18:21 51°18.072 2°51.527 7.7683 3.403496 32.648034 -2.458615
2012-01-10 08:18:26 51°18.086 2°51.515 7.769 3.402357 32.637632 -2.458615
2012-01-10 08:18:31 51°18.1 2°51.502 7.7603 3.402357 32.637632 -2.458615
2012-01-10 08:18:36 51°18.114 2°51.489 7.7601 3.402047 32.636046 -2.458615
2012-01-10 08:18:42 51°18.131 2°51.474 7.7618 3.400805 32.626262 -2.458615
2012-01-10 08:18:46 51°18.142 2°51.463 7.7515 3.399356 32.615991 -2.458615
2012-01-10 08:18:51 51°18.156 2°51.45 7.7423 3.397803 32.604616 -2.458615
2012-01-10 08:18:56 51°18.17 2°51.437 7.7469 3.389316 32.515964 -2.458615
2012-01-10 08:19:02 51°18.186 2°51.421 7.743 3.389316 32.515964 -2.458615
2012-01-10 08:19:06 51°18.197 2°51.411 7.7401 3.387659 32.500905 -2.458615
2012-01-10 08:19:11 51°18.211 2°51.398 7.7328 3.384761 32.47348 -2.458615
2012-01-10 08:19:16 51°18.225 2°51.385 7.7331 3.384451 32.474456 -2.458615
2012-01-10 08:19:21 51°18.239 2°51.373 7.7275 3.380621 32.43882 -2.458615
2012-01-10 08:19:26 51°18.254 2°51.36 7.7206 3.378551 32.418493 -2.458615
2012-01-10 08:19:31 51°18.267 2°51.347 7.7201 3.378551 32.418493 -2.458615
2012-01-10 08:19:36 51°18.281 2°51.333 7.7216 3.37555 32.390812 -2.458615
2012-01-10 08:19:41 51°18.295 2°51.32 7.7139 3.37555 32.39594 -2.458615
2012-01-10 08:19:46 51°18.309 2°51.307 7.7138 3.372548 32.367399 -2.458615
2012-01-10 08:19:51 51°18.323 2°51.293 7.7083 3.370582 32.351584 -2.458615
2012-01-10 08:19:56 51°18.337 2°51.28 7.7043 3.367166 32.317777 -2.458615
2012-01-10 08:20:01 51°18.351 2°51.267 7.6989 3.367166 32.317777 -2.458615
2012-01-10 08:20:06 51°18.365 2°51.254 7.6857 3.367477 32.325349 -2.458615
2012-01-10 08:20:11 51°18.379 2°51.241 7.6726 3.365717 32.310025 -2.458615
2012-01-10 08:20:16 51°18.393 2°51.228 7.6695 3.363751 32.291643 -2.458615
2012-01-10 08:20:21 51°18.407 2°51.216 7.6501 3.362302 32.280475 -2.458615
2012-01-10 08:20:26 51°18.421 2°51.204 7.6475 3.360646 32.2671 -2.458615
2012-01-10 08:20:31 51°18.436 2°51.192 7.6326 3.360646 32.2671 -2.458615
2012-01-10 08:20:37 51°18.453 2°51.179 7.6222 3.357955 32.2427 -2.458615
2012-01-10 08:20:41 51°18.465 2°51.171 7.6236 3.353918 32.20652 -2.458615
2012-01-10 08:20:46 51°18.479 2°51.16 7.6174 3.349986 32.173987 -2.458615
2012-01-10 08:20:51 51°18.493 2°51.149 7.604 3.345949 32.13949 -2.458615
2012-01-10 08:20:56 51°18.507 2°51.138 7.6023 3.341085 32.099557 -2.458615
2012-01-10 08:21:02 51°18.525 2°51.125 7.5944 3.341085 32.099557 -2.458615
2012-01-10 08:21:06 51°18.536 2°51.117 7.5896 3.335496 32.05104 -2.458615
2012-01-10 08:21:11 51°18.551 2°51.107 7.5829 3.329804 32.001402 -2.458615
2012-01-10 08:21:16 51°18.565 2°51.096 7.5852 3.326079 31.969318 -2.458615
2012-01-10 08:21:21 51°18.58 2°51.085 7.5685 3.323181 31.947742 -2.458615
2012-01-10 08:21:26 51°18.594 2°51.074 7.5654 3.320283 31.922775 -2.458615
2012-01-10 08:21:31 51°18.608 2°51.063 7.5587 3.320283 31.922775 -2.458615
2012-01-10 08:21:36 51°18.622 2°51.052 7.5482 3.31842 31.908835 -2.458615
2012-01-10 08:21:41 51°18.637 2°51.041 7.5389 3.315212 31.881393 -2.458615
2012-01-10 08:21:46 51°18.651 2°51.03 7.5311 3.314177 31.877962 -2.458615
2012-01-10 08:21:51 51°18.665 2°51.02 7.5192 3.309934 31.840317 -2.458615
2012-01-10 08:21:56 51°18.68 2°51.009 7.5184 3.306933 31.813376 -2.458615
2012-01-10 08:22:01 51°18.694 2°50.998 7.5075 3.306933 31.813376 -2.458615
2012-01-10 08:22:06 51°18.708 2°50.987 7.5005 3.303311 31.784024 -2.458615
2012-01-10 08:22:11 51°18.723 2°50.975 7.4977 3.299068 31.745512 -2.458615
2012-01-10 08:22:16 51°18.737 2°50.963 7.4972 3.295446 31.716982 -2.458615
2012-01-10 08:22:21 51°18.751 2°50.951 7.493 3.290686 31.676296 -2.458615
2012-01-10 08:22:26 51°18.765 2°50.938 7.4892 3.286961 31.644116 -2.458615
2012-01-10 08:22:31 51°18.779 2°50.926 7.4898 3.286961 31.644116 -2.458615
2012-01-10 08:22:37 51°18.797 2°50.912 7.4829 3.283029 31.609719 -2.458615
2012-01-10 08:22:41 51°18.808 2°50.903 7.4917 3.278165 31.565377 -2.458615
2012-01-10 08:22:46 51°18.823 2°50.892 7.494 3.274543 31.534275 -2.458615
2012-01-10 08:22:51 51°18.837 2°50.881 7.4952 3.271439 31.5045 -2.458615
2012-01-10 08:22:57 51°18.854 2°50.867 7.4941 3.268541 31.477768 -2.458615
2012-01-10 08:23:01 51°18.866 2°50.858 7.4997 3.268541 31.477768 -2.458615
2012-01-10 08:23:06 51°18.88 2°50.847 7.4993 3.266782 31.46318 -2.458615
2012-01-10 08:23:11 51°18.895 2°50.836 7.5013 3.263471 31.43119 -2.458615
2012-01-10 08:23:16 51°18.909 2°50.825 7.4991 3.262539 31.422924 -2.458615
2012-01-10 08:23:22 51°18.927 2°50.811 7.5056 3.260573 31.401111 -2.458615
2012-01-10 08:23:26 51°18.938 2°50.802 7.5046 3.260366 31.398068 -2.458615
2012-01-10 08:23:31 51°18.953 2°50.79 7.5045 3.260366 31.398068 -2.458615
2012-01-10 08:23:36 51°18.967 2°50.779 7.5038 3.260573 31.398607 -2.458615
2012-01-10 08:23:42 51°18.985 2°50.766 7.5101 3.258607 31.376799 -2.458615
2012-01-10 08:23:46 51°18.996 2°50.757 7.5148 3.259745 31.387272 -2.458615
2012-01-10 08:23:51 51°19.011 2°50.746 7.5082 3.260366 31.39306 -2.458615
2012-01-10 08:23:56 51°19.026 2°50.736 7.5127 3.260987 31.398849 -2.458615
2012-01-10 08:24:01 51°19.041 2°50.726 7.5147 3.260987 31.398849 -2.458615
2012-01-10 08:24:06 51°19.055 2°50.716 7.5123 3.259228 31.378417 -2.458615
2012-01-10 08:24:11 51°19.07 2°50.706 7.5157 3.260159 31.38835 -2.458615
2012-01-10 08:24:16 51°19.085 2°50.696 7.5187 3.261608 31.401298 -2.458615
2012-01-10 08:24:21 51°19.1 2°50.686 7.5215 3.259228 31.374247 -2.458615
2012-01-10 08:24:26 51°19.115 2°50.675 7.521 3.260677 31.388863 -2.458615
2012-01-10 08:24:31 51°19.129 2°50.663 7.5216 3.260677 31.388863 -2.458615
2012-01-10 08:24:36 51°19.144 2°50.652 7.5196 3.259642 31.376994 -2.458615
2012-01-10 08:24:41 51°19.158 2°50.64 7.5164 3.261504 31.396023 -2.458615
2012-01-10 08:24:46 51°19.173 2°50.627 7.5149 3.258193 31.359879 -2.458615
2012-01-10 08:24:51 51°19.187 2°50.615 7.5194 3.26078 31.385796 -2.458615
2012-01-10 08:24:56 51°19.201 2°50.601 7.5159 3.261194 31.388542 -2.458615
2012-01-10 08:25:01 51°19.216 2°50.589 7.514 3.261194 31.388542 -2.458615
2012-01-10 08:25:06 51°19.23 2°50.576 7.512 3.259952 31.374468 -2.458615
2012-01-10 08:25:11 51°19.244 2°50.564 7.5103 3.259642 31.371158 -2.458615
2012-01-10 08:25:16 51°19.258 2°50.551 7.5105 3.25571 31.33007 -2.458615
2012-01-10 08:25:22 51°19.275 2°50.536 7.5158 3.254882 31.322078 -2.458615
2012-01-10 08:25:26 51°19.287 2°50.526 7.5173 3.25333 31.305532 -2.458615
2012-01-10 08:25:31 51°19.301 2°50.513 7.5223 3.25333 31.305532 -2.458615
2012-01-10 08:25:36 51°19.316 2°50.501 7.5292 3.253537 31.30857 -2.458615
2012-01-10 08:25:42 51°19.333 2°50.487 7.5352 3.251467 31.288173 -2.458615
2012-01-10 08:25:46 51°19.345 2°50.477 7.5409 3.249811 31.272188 -2.458615
2012-01-10 08:25:51 51°19.359 2°50.466 7.5443 3.250432 31.278806 -2.458615
2012-01-10 08:25:56 51°19.374 2°50.454 7.551 3.250018 31.273563 -2.458615
2012-01-10 08:26:01 51°19.388 2°50.442 7.5577 3.250018 31.273563 -2.458615
2012-01-10 08:26:06 51°19.403 2°50.432 7.5691 3.250536 31.276585 -2.458615
2012-01-10 08:26:11 51°19.418 2°50.421 7.5744 3.252605 31.294486 -2.458615
2012-01-10 08:26:16 51°19.433 2°50.412 7.5813 3.252295 31.287022 -2.458615
2012-01-10 08:26:21 51°19.448 2°50.402 7.5878 3.253433 31.294164 -2.458615
2012-01-10 08:26:26 51°19.463 2°50.393 7.5911 3.254985 31.304883 -2.458615
2012-01-10 08:26:31 51°19.478 2°50.384 7.5967 3.254985 31.304883 -2.458615
2012-01-10 08:26:36 51°19.493 2°50.376 7.6011 3.256951 31.320841 -2.458615
2012-01-10 08:26:41 51°19.509 2°50.366 7.6044 3.256434 31.307018 -2.458615
2012-01-10 08:26:46 51°19.524 2°50.357 7.6069 3.259124 31.329021 -2.458615
2012-01-10 08:26:51 51°19.539 2°50.349 7.6112 3.261504 31.34605 -2.458615
2012-01-10 08:26:56 51°19.554 2°50.34 7.6137 3.262021 31.345739 -2.458615
2012-01-10 08:27:01 51°19.569 2°50.331 7.6137 3.262021 31.345739 -2.458615
2012-01-10 08:27:06 51°19.584 2°50.321 7.6166 3.262642 31.346529 -2.458615
2012-01-10 08:27:11 51°19.6 2°50.312 7.6165 3.262952 31.344847 -2.458615
2012-01-10 08:27:17 51°19.618 2°50.301 7.6167 3.263987 31.350873 -2.458615
2012-01-10 08:27:21 51°19.63 2°50.294 7.6195 3.266264 31.370941 -2.458615
2012-01-10 08:27:26 51°19.645 2°50.285 7.6193 3.267298 31.378626 -2.458615
2012-01-10 08:27:31 51°19.661 2°50.275 7.6191 3.267298 31.378626 -2.458615
2012-01-10 08:27:37 51°19.679 2°50.263 7.6202 3.268333 31.387974 -2.458615
2012-01-10 08:27:42 51°19.694 2°50.254 7.6219 3.268023 31.381344 -2.458615
2012-01-10 08:27:46 51°19.706 2°50.246 7.6209 3.268954 31.389589 -2.458615
2012-01-10 08:27:51 51°19.721 2°50.236 7.628 3.267091 31.368943 -2.458615
2012-01-10 08:27:56 51°19.737 2°50.226 7.6242 3.267195 31.368382 -2.458615
2012-01-10 08:28:02 51°19.755 2°50.214 7.6244 3.267195 31.368382 -2.458615
2012-01-10 08:28:06 51°19.767 2°50.206 7.6249 3.268126 31.377457 -2.458615
2012-01-10 08:28:11 51°19.782 2°50.195 7.6221 3.267505 31.370022 -2.458615
2012-01-10 08:28:16 51°19.797 2°50.185 7.6258 3.267402 31.36726 -2.458615
2012-01-10 08:28:21 51°19.813 2°50.174 7.6297 3.264504 31.334785 -2.458615
2012-01-10 08:28:26 51°19.828 2°50.162 7.629 3.265539 31.344959 -2.458615
2012-01-10 08:28:31 51°19.842 2°50.15 7.627 3.265539 31.344959 -2.458615
2012-01-10 08:28:36 51°19.857 2°50.137 7.6269 3.264504 31.333125 -2.458615
2012-01-10 08:28:41 51°19.872 2°50.125 7.6259 3.261607 31.302318 -2.458615
2012-01-10 08:28:46 51°19.887 2°50.112 7.6216 3.262331 31.310019 -2.458615
2012-01-10 08:28:51 51°19.901 2°50.099 7.6234 3.262331 31.310019 -2.458615
2012-01-10 08:28:56 51°19.916 2°50.085 7.6197 3.260986 31.294059 -2.458615
2012-01-10 08:29:01 51°19.93 2°50.072 7.617 3.260986 31.294059 -2.458615
2012-01-10 08:29:06 51°19.945 2°50.059 7.6162 3.262021 31.30506 -2.458615
2012-01-10 08:29:11 51°19.96 2°50.046 7.6119 3.261503 31.29956 -2.458615
2012-01-10 08:29:16 51°19.974 2°50.033 7.6053 3.262642 31.312491 -2.458615
2012-01-10 08:29:21 51°19.989 2°50.02 7.6 3.261193 31.297917 -2.458615
2012-01-10 08:29:26 51°20.004 2°50.008 7.5967 3.259434 31.280044 -2.458615
2012-01-10 08:29:31 51°20.019 2°49.996 7.5903 3.259434 31.280044 -2.458615
2012-01-10 08:29:37 51°20.037 2°49.98 7.5858 3.257985 31.266299 -2.458615
2012-01-10 08:29:42 51°20.052 2°49.968 7.5896 3.257778 31.267411 -2.458615
2012-01-10 08:29:46 51°20.064 2°49.958 7.5813 3.255812 31.248992 -2.458615
2012-01-10 08:29:51 51°20.079 2°49.947 7.5758 3.252294 31.214897 -2.458615
2012-01-10 08:29:56 51°20.095 2°49.936 7.5727 3.2495 31.189328 -2.458615
2012-01-10 08:30:02 51°20.113 2°49.923 7.5727 3.2495 31.189328 -2.458615
2012-01-10 08:30:06 51°20.126 2°49.915 7.5618 3.245154 31.148906 -2.458615
2012-01-10 08:30:11 51°20.141 2°49.905 7.562 3.243499 31.135432 -2.458615
2012-01-10 08:30:16 51°20.157 2°49.895 7.5609 3.239877 31.099403 -2.458615
2012-01-10 08:30:21 51°20.172 2°49.885 7.5606 3.239463 31.099125 -2.458615
2012-01-10 08:30:26 51°20.188 2°49.874 7.5558 3.235738 31.063641 -2.458615
2012-01-10 08:30:31 51°20.203 2°49.864 7.554 3.235738 31.063641 -2.458615
2012-01-10 08:30:36 51°20.219 2°49.854 7.5503 3.230875 31.015232 -2.458615
2012-01-10 08:30:41 51°20.234 2°49.844 7.5433 3.226839 30.977266 -2.458615
2012-01-10 08:30:46 51°20.25 2°49.833 7.5378 3.224874 30.960474 -2.458615
2012-01-10 08:30:51 51°20.265 2°49.823 7.5415 3.222597 30.937917 -2.458615
2012-01-10 08:30:56 51°20.28 2°49.812 7.5385 3.221873 30.934321 -2.458615
2012-01-10 08:31:01 51°20.296 2°49.801 7.5382 3.221873 30.934321 -2.458615
2012-01-10 08:31:06 51°20.311 2°49.791 7.5366 3.221045 30.927162 -2.458615
2012-01-10 08:31:11 51°20.327 2°49.779 7.5394 3.217734 30.894423 -2.458615
2012-01-10 08:31:16 51°20.342 2°49.769 7.5357 3.216906 30.889722 -2.458615
2012-01-10 08:31:21 51°20.357 2°49.758 7.5374 3.213182 30.855856 -2.458615
2012-01-10 08:31:26 51°20.373 2°49.747 7.5356 3.211216 30.837412 -2.458615
2012-01-10 08:31:31 51°20.388 2°49.735 7.5274 3.211216 30.837412 -2.458615
2012-01-10 08:31:37 51°20.406 2°49.722 7.5258 3.208836 30.813748 -2.458615
2012-01-10 08:31:41 51°20.418 2°49.712 7.5284 3.20656 30.78955 -2.458615
2012-01-10 08:31:46 51°20.434 2°49.7 7.5273 3.205318 30.77717 -2.458615
2012-01-10 08:31:51 51°20.449 2°49.688 7.5246 3.205215 30.777704 -2.458615
2012-01-10 08:31:57 51°20.467 2°49.673 7.5269 3.202214 30.746627 -2.458615
2012-01-10 08:32:01 51°20.479 2°49.664 7.5272 3.202214 30.746627 -2.458615
2012-01-10 08:32:06 51°20.494 2°49.651 7.5235 3.201904 30.745776 -2.458615
2012-01-10 08:32:11 51°20.509 2°49.639 7.525 3.201593 30.744926 -2.458615
2012-01-10 08:32:16 51°20.524 2°49.626 7.5251 3.198075 30.708349 -2.458615
2012-01-10 08:32:22 51°20.542 2°49.611 7.529 3.198179 30.711079 -2.458615
2012-01-10 08:32:26 51°20.554 2°49.601 7.5283 3.199731 30.728393 -2.458615
2012-01-10 08:32:31 51°20.569 2°49.589 7.5294 3.199731 30.728393 -2.458615
2012-01-10 08:32:36 51°20.584 2°49.577 7.5277 3.195903 30.688515 -2.458615
2012-01-10 08:32:41 51°20.599 2°49.565 7.5289 3.196006 30.69043 -2.458615
2012-01-10 08:32:46 51°20.614 2°49.553 7.5295 3.19404 30.67035 -2.458615
2012-01-10 08:32:51 51°20.63 2°49.542 7.5285 3.193833 30.668151 -2.458615
2012-01-10 08:32:56 51°20.645 2°49.53 7.5259 3.19342 30.662124 -2.458615
2012-01-10 08:33:01 51°20.66 2°49.518 7.5285 3.19342 30.662124 -2.458615
2012-01-10 08:33:06 51°20.675 2°49.506 7.529 3.193213 30.65911 -2.458615
2012-01-10 08:33:11 51°20.69 2°49.494 7.5374 3.189074 30.615133 -2.458615
2012-01-10 08:33:16 51°20.704 2°49.481 7.5451 3.189798 30.622828 -2.458615
2012-01-10 08:33:21 51°20.719 2°49.468 7.5555 3.188764 30.611022 -2.458615
2012-01-10 08:33:26 51°20.734 2°49.456 7.5655 3.186694 30.58985 -2.458615
2012-01-10 08:33:31 51°20.749 2°49.444 7.5789 3.186694 30.58985 -2.458615
2012-01-10 08:33:36 51°20.764 2°49.432 7.5917 3.180487 30.524718 -2.458615
2012-01-10 08:33:41 51°20.778 2°49.419 7.6022 3.179969 30.518413 -2.458615
2012-01-10 08:33:46 51°20.793 2°49.407 7.6115 3.178624 30.501699 -2.458615
2012-01-10 08:33:51 51°20.808 2°49.394 7.6226 3.179452 30.504008 -2.458615
2012-01-10 08:33:56 51°20.822 2°49.382 7.6292 3.18059 30.509613 -2.458615
2012-01-10 08:34:01 51°20.837 2°49.37 7.6378 3.18059 30.509613 -2.458615
2012-01-10 08:34:06 51°20.852 2°49.358 7.6451 3.178934 30.482332 -2.458615
2012-01-10 08:34:11 51°20.867 2°49.347 7.6513 3.176037 30.441902 -2.458615
2012-01-10 08:34:16 51°20.882 2°49.336 7.656 3.168588 30.351637 -2.458615
2012-01-10 08:34:22 51°20.9 2°49.324 7.6625 3.152345 30.169947 -2.458615
2012-01-10 08:34:26 51°20.912 2°49.316 7.6683 3.133723 29.963348 -2.458615
2012-01-10 08:34:31 51°20.927 2°49.307 7.6737 3.133723 29.963348 -2.458615
2012-01-10 08:34:36 51°20.942 2°49.297 7.6787 3.016008 28.712828 -2.458615
2012-01-10 08:34:42 51°20.961 2°49.286 7.6833 2.849414 26.960452 -2.458615
2012-01-10 08:34:46 51°20.973 2°49.278 7.6855 2.79741 26.411901 -2.458615
2012-01-10 08:34:51 51°20.988 2°49.268 7.6885 3.321215 31.920022 -2.458615
2012-01-10 08:34:56 51°21.004 2°49.259 7.6896 3.334358 32.053326 -2.458615
2012-01-10 08:35:01 51°21.019 2°49.25 7.6916 3.334358 32.053326 -2.458615
2012-01-10 08:35:06 51°21.035 2°49.241 7.6957 3.33798 32.085148 -2.458615
2012-01-10 08:35:11 51°21.05 2°49.232 7.6971 3.33767 32.075897 -2.458615
2012-01-10 08:35:16 51°21.065 2°49.223 7.6999 3.339429 32.088704 -2.458615
2012-01-10 08:35:21 51°21.081 2°49.214 7.7025 3.340878 32.100748 -2.458615
2012-01-10 08:35:26 51°21.096 2°49.205 7.7043 3.342637 32.115249 -2.458615
2012-01-10 08:35:31 51°21.112 2°49.196 7.7044 3.342637 32.115249 -2.458615
2012-01-10 08:35:36 51°21.127 2°49.187 7.7052 3.343051 32.117112 -2.458615
2012-01-10 08:35:41 51°21.143 2°49.178 7.7047 3.343983 32.123638 -2.458615
2012-01-10 08:35:46 51°21.158 2°49.168 7.707 3.346777 32.15086 -2.458615
2012-01-10 08:35:51 51°21.173 2°49.159 7.7075 3.347191 32.15187 -2.458615
2012-01-10 08:35:56 51°21.188 2°49.149 7.708 3.34864 32.164756 -2.458615
2012-01-10 08:36:01 51°21.203 2°49.138 7.7036 3.34864 32.164756 -2.458615
2012-01-10 08:36:06 51°21.218 2°49.127 7.708 3.34864 32.163055 -2.458615
2012-01-10 08:36:11 51°21.233 2°49.116 7.7073 3.349675 32.17238 -2.458615
2012-01-10 08:36:17 51°21.251 2°49.103 7.7048 3.350089 32.175089 -2.458615
2012-01-10 08:36:21 51°21.263 2°49.093 7.7057 3.350607 32.179751 -2.458615
2012-01-10 08:36:26 51°21.278 2°49.082 7.7076 3.350089 32.173388 -2.458615
2012-01-10 08:36:31 51°21.293 2°49.071 7.7121 3.350089 32.173388 -2.458615
2012-01-10 08:36:36 51°21.308 2°49.06 7.7128 3.351228 32.186366 -2.458615
2012-01-10 08:36:41 51°21.324 2°49.05 7.7174 3.351435 32.188571 -2.458615
2012-01-10 08:36:46 51°21.339 2°49.04 7.7195 3.350503 32.178648 -2.458615
2012-01-10 08:36:51 51°21.354 2°49.031 7.7211 3.351952 32.193232 -2.458615
2012-01-10 08:36:56 51°21.37 2°49.022 7.7228 3.351642 32.189074 -2.458615
2012-01-10 08:37:02 51°21.389 2°49.011 7.7258 3.351642 32.189074 -2.458615
2012-01-10 08:37:06 51°21.401 2°49.005 7.7275 3.351538 32.186271 -2.458615
2012-01-10 08:37:11 51°21.417 2°48.996 7.7308 3.352159 32.190333 -2.458615
2012-01-10 08:37:16 51°21.432 2°48.987 7.7313 3.352987 32.1966 -2.458615
2012-01-10 08:37:21 51°21.448 2°48.978 7.7326 3.353297 32.197354 -2.458615
2012-01-10 08:37:26 51°21.463 2°48.969 7.7332 3.354022 32.202518 -2.458615
2012-01-10 08:37:31 51°21.479 2°48.96 7.7351 3.354022 32.202518 -2.458615
2012-01-10 08:37:36 51°21.494 2°48.951 7.7387 3.35485 32.208783 -2.458615
2012-01-10 08:37:41 51°21.51 2°48.942 7.7429 3.356092 32.220306 -2.458615
2012-01-10 08:37:46 51°21.525 2°48.932 7.7489 3.357748 32.235387 -2.458615
2012-01-10 08:37:51 51°21.54 2°48.923 7.7545 3.358783 32.244705 -2.458615
2012-01-10 08:37:56 51°21.556 2°48.914 7.7629 3.3593 32.248512 -2.458615
2012-01-10 08:38:01 51°21.571 2°48.905 7.7678 3.3593 32.248512 -2.458615
2012-01-10 08:38:06 51°21.587 2°48.896 7.7739 3.359714 32.251217 -2.458615
2012-01-10 08:38:11 51°21.602 2°48.887 7.7823 3.360853 32.260784 -2.458615
2012-01-10 08:38:16 51°21.617 2°48.876 7.7872 3.361474 32.264841 -2.458615
2012-01-10 08:38:21 51°21.632 2°48.866 7.7966 3.362612 32.272702 -2.458615
2012-01-10 08:38:26 51°21.647 2°48.855 7.8066 3.364268 32.284367 -2.458615
2012-01-10 08:38:31 51°21.662 2°48.844 7.8147 3.364268 32.284367 -2.458615
2012-01-10 08:38:37 51°21.68 2°48.83 7.8221 3.36582 32.294928 -2.458615
2012-01-10 08:38:41 51°21.692 2°48.821 7.8284 3.368822 32.320907 -2.458615
2012-01-10 08:38:46 51°21.707 2°48.81 7.8358 3.371409 32.341623 -2.458615
2012-01-10 08:38:51 51°21.722 2°48.799 7.8427 3.373479 32.357679 -2.458615
2012-01-10 08:38:56 51°21.737 2°48.788 7.8498 3.376688 32.383285 -2.458615
2012-01-10 08:39:02 51°21.755 2°48.774 7.8556 3.376688 32.383285 -2.458615
2012-01-10 08:39:06 51°21.766 2°48.764 7.8611 3.380414 32.413534 -2.458615
2012-01-10 08:39:11 51°21.781 2°48.753 7.8646 3.383002 32.432516 -2.458615
2012-01-10 08:39:16 51°21.796 2°48.74 7.8692 3.386831 32.465557 -2.458615
2012-01-10 08:39:22 51°21.813 2°48.727 7.8741 3.389212 32.484034 -2.458615
2012-01-10 08:39:26 51°21.825 2°48.718 7.8794 3.391903 32.504096 -2.458615
2012-01-10 08:39:31 51°21.84 2°48.707 7.8825 3.391903 32.504096 -2.458615
2012-01-10 08:39:36 51°21.855 2°48.697 7.8867 3.394283 32.522563 -2.458615
2012-01-10 08:39:41 51°21.871 2°48.687 7.8896 3.396353 32.537723 -2.458615
2012-01-10 08:39:46 51°21.886 2°48.678 7.8949 3.397285 32.541632 -2.458615
2012-01-10 08:39:51 51°21.901 2°48.669 7.8981 3.400701 32.571944 -2.458615
2012-01-10 08:39:56 51°21.917 2°48.661 7.9005 3.403288 32.594307 -2.458615
2012-01-10 08:40:01 51°21.932 2°48.652 7.9043 3.403288 32.594307 -2.458615
2012-01-10 08:40:06 51°21.948 2°48.644 7.9091 3.403909 32.594907 -2.458615
2012-01-10 08:40:11 51°21.963 2°48.635 7.9114 3.407739 32.630463 -2.458615
2012-01-10 08:40:16 51°21.978 2°48.626 7.9156 3.409292 32.642673 -2.458615
2012-01-10 08:40:21 51°21.994 2°48.617 7.9178 3.410327 32.649382 -2.458615
2012-01-10 08:40:26 51°22.009 2°48.608 7.9227 3.411776 32.65963 -2.458615
2012-01-10 08:40:31 51°22.024 2°48.597 7.9238 3.411776 32.65963 -2.458615
2012-01-10 08:40:37 51°22.043 2°48.585 7.9258 3.413432 32.673793 -2.458615
2012-01-10 08:40:41 51°22.055 2°48.576 7.9283 3.413639 32.672558 -2.458615
2012-01-10 08:40:46 51°22.07 2°48.565 7.9306 3.414778 32.680361 -2.458615
2012-01-10 08:40:51 51°22.085 2°48.554 7.9323 3.416744 32.697818 -2.458615
2012-01-10 08:40:57 51°22.103 2°48.541 7.937 3.417262 32.69988 -2.458615
2012-01-10 08:41:01 51°22.115 2°48.532 7.9372 3.417262 32.69988 -2.458615
2012-01-10 08:41:06 51°22.13 2°48.522 7.9427 3.418504 32.709637 -2.458615
2012-01-10 08:41:11 51°22.145 2°48.512 7.9453 3.418504 32.706202 -2.458615
2012-01-10 08:41:17 51°22.163 2°48.5 7.95 3.420471 32.724511 -2.458615
2012-01-10 08:41:22 51°22.178 2°48.49 7.9562 3.419849 32.715339 -2.458615
2012-01-10 08:41:26 51°22.19 2°48.482 7.9593 3.422127 32.736084 -2.458615
2012-01-10 08:41:31 51°22.205 2°48.473 7.9642 3.422127 32.736084 -2.458615
2012-01-10 08:41:36 51°22.221 2°48.464 7.9692 3.422955 32.742299 -2.458615
2012-01-10 08:41:41 51°22.236 2°48.455 7.973 3.423783 32.746794 -2.458615
2012-01-10 08:41:46 51°22.251 2°48.447 7.9775 3.424921 32.755445 -2.458615
2012-01-10 08:41:51 51°22.266 2°48.438 7.9813 3.426164 32.765194 -2.458615
2012-01-10 08:41:56 51°22.281 2°48.429 7.9854 3.427199 32.771024 -2.458615
2012-01-10 08:42:01 51°22.297 2°48.42 7.9902 3.427199 32.771024 -2.458615
2012-01-10 08:42:06 51°22.312 2°48.411 7.9953 3.429062 32.785643 -2.458615
2012-01-10 08:42:11 51°22.327 2°48.403 7.9984 3.430304 32.793667 -2.458615
2012-01-10 08:42:16 51°22.342 2°48.394 8.0013 3.431339 32.800352 -2.458615
2012-01-10 08:42:21 51°22.357 2°48.386 8.0032 3.432685 32.809472 -2.458615
2012-01-10 08:42:26 51°22.372 2°48.378 8.0068 3.434444 32.823843 -2.458615
2012-01-10 08:42:31 51°22.387 2°48.369 8.0084 3.434444 32.823843 -2.458615
2012-01-10 08:42:36 51°22.402 2°48.361 8.012 3.435687 32.831859 -2.458615
2012-01-10 08:42:41 51°22.417 2°48.353 8.0131 3.437343 32.845128 -2.458615
2012-01-10 08:42:46 51°22.432 2°48.345 8.0166 3.437964 32.846553 -2.458615
2012-01-10 08:42:51 51°22.447 2°48.335 8.0182 3.439517 32.85958 -2.458615
2012-01-10 08:42:56 51°22.461 2°48.326 8.0219 3.440448 32.866018 -2.458615
2012-01-10 08:43:01 51°22.476 2°48.315 8.0226 3.440448 32.866018 -2.458615
2012-01-10 08:43:06 51°22.49 2°48.304 8.0251 3.439723 32.85489 -2.458615
2012-01-10 08:43:11 51°22.505 2°48.293 8.0267 3.440862 32.864384 -2.458615
2012-01-10 08:43:17 51°22.521 2°48.279 8.0292 3.441897 32.872779 -2.458615
2012-01-10 08:43:22 51°22.535 2°48.268 8.0315 3.442725 32.878978 -2.458615
2012-01-10 08:43:26 51°22.547 2°48.259 8.0328 3.443554 32.884315 -2.458615
2012-01-10 08:43:31 51°22.561 2°48.249 8.0356 3.443554 32.884315 -2.458615
2012-01-10 08:43:36 51°22.575 2°48.239 8.0385 3.444382 32.891374 -2.458615
2012-01-10 08:43:42 51°22.592 2°48.226 8.0408 3.445417 32.899766 -2.458615
2012-01-10 08:43:46 51°22.604 2°48.218 8.0426 3.445727 32.900475 -2.458615
2012-01-10 08:43:51 51°22.618 2°48.207 8.0442 3.446762 32.908865 -2.458615
2012-01-10 08:43:56 51°22.632 2°48.196 8.0467 3.447487 32.913963 -2.458615
2012-01-10 08:44:01 51°22.647 2°48.186 8.0479 3.447487 32.913963 -2.458615
2012-01-10 08:44:06 51°22.661 2°48.173 8.0506 3.448108 32.917963 -2.458615
2012-01-10 08:44:11 51°22.675 2°48.163 8.0527 3.448419 32.918671 -2.458615
2012-01-10 08:44:16 51°22.689 2°48.15 8.0551 3.449247 32.924003 -2.458615
2012-01-10 08:44:21 51°22.703 2°48.14 8.0569 3.450178 32.932155 -2.458615
2012-01-10 08:44:26 51°22.717 2°48.128 8.0576 3.4508 32.937015 -2.458615
2012-01-10 08:44:31 51°22.731 2°48.117 8.0581 3.4508 32.937015 -2.458615
2012-01-10 08:44:36 51°22.746 2°48.106 8.0628 3.451214 32.938818 -2.458615
2012-01-10 08:44:41 51°22.76 2°48.096 8.0629 3.449661 32.919778 -2.458615
2012-01-10 08:44:46 51°22.775 2°48.086 8.0635 3.452352 32.945715 -2.458615
2012-01-10 08:44:51 51°22.79 2°48.077 8.0656 3.452663 32.946421 -2.458615
2012-01-10 08:44:56 51°22.804 2°48.067 8.0675 3.453077 32.948224 -2.458615
2012-01-10 08:45:01 51°22.819 2°48.059 8.0694 3.453077 32.948224 -2.458615
2012-01-10 08:45:06 51°22.834 2°48.047 8.0717 3.454319 32.959663 -2.458615
2012-01-10 08:45:11 51°22.848 2°48.038 8.0758 3.448418 32.894569 -2.458615
2012-01-10 08:45:17 51°22.866 2°48.025 8.0778 3.458356 32.99813 -2.458615
2012-01-10 08:45:21 51°22.878 2°48.017 8.0813 3.458253 32.995308 -2.458615
2012-01-10 08:45:26 51°22.892 2°48.006 8.0835 3.459288 33.005414 -2.458615
2012-01-10 08:45:31 51°22.907 2°47.997 8.0874 3.459288 33.005414 -2.458615
2012-01-10 08:45:37 51°22.924 2°47.984 8.0886 3.459806 33.009172 -2.458615
2012-01-10 08:45:42 51°22.939 2°47.974 8.0914 3.46053 33.015124 -2.458615
2012-01-10 08:45:46 51°22.951 2°47.967 8.0932 3.46053 33.011672 -2.458615
2012-01-10 08:45:51 51°22.965 2°47.956 8.0952 3.462497 33.029921 -2.458615
2012-01-10 08:45:56 51°22.98 2°47.946 8.0991 3.462497 33.029921 -2.458615
2012-01-10 08:46:02 51°22.998 2°47.934 8.1003 3.466638 33.069473 -2.458615
2012-01-10 08:46:06 51°23.009 2°47.925 8.1025 3.468191 33.083332 -2.458615
2012-01-10 08:46:11 51°23.024 2°47.914 8.1045 3.468708 33.085358 -2.458615
2012-01-10 08:46:16 51°23.038 2°47.903 8.1039 3.461048 33.001629 -2.458615
2012-01-10 08:46:21 51°23.053 2°47.891 8.104 3.459909 32.987847 -2.458615
2012-01-10 08:46:26 51°23.067 2°47.88 8.1064 3.460323 32.989647 -2.458615
2012-01-10 08:46:31 51°23.081 2°47.868 8.1082 3.460323 32.989647 -2.458615
2012-01-10 08:46:36 51°23.096 2°47.856 8.1095 3.461254 32.996925 -2.458615
2012-01-10 08:46:41 51°23.11 2°47.844 8.1123 3.462704 33.010546 -2.458615
2012-01-10 08:46:46 51°23.125 2°47.833 8.1147 3.46229 33.003576 -2.458615
2012-01-10 08:46:51 51°23.139 2°47.822 8.1166 3.463532 33.015865 -2.458615
2012-01-10 08:46:56 51°23.154 2°47.813 8.1189 3.463221 33.010853 -2.458615
2012-01-10 08:47:01 51°23.169 2°47.802 8.1204 3.463221 33.010853 -2.458615
2012-01-10 08:47:06 51°23.184 2°47.793 8.123 3.464878 33.026663 -2.458615
2012-01-10 08:47:11 51°23.199 2°47.783 8.1278 3.464774 33.023842 -2.458615
2012-01-10 08:47:17 51°23.217 2°47.773 8.1309 3.463428 33.007011 -2.458615
2012-01-10 08:47:21 51°23.228 2°47.765 8.1347 3.463532 33.006384 -2.458615
2012-01-10 08:47:26 51°23.243 2°47.756 8.1381 3.465085 33.019371 -2.458615
2012-01-10 08:47:31 51°23.258 2°47.748 8.1405 3.465085 33.019371 -2.458615
2012-01-10 08:47:37 51°23.276 2°47.737 8.1432 3.466844 33.036272 -2.458615
2012-01-10 08:47:41 51°23.288 2°47.73 8.1475 3.46643 33.028441 -2.458615
2012-01-10 08:47:46 51°23.303 2°47.72 8.1505 3.466741 33.029142 -2.458615
2012-01-10 08:47:51 51°23.318 2°47.71 8.1546 3.46819 33.041029 -2.458615
2012-01-10 08:47:57 51°23.336 2°47.699 8.1583 3.471089 33.06825 -2.458615
2012-01-10 08:48:02 51°23.351 2°47.69 8.1611 3.471089 33.06825 -2.458615
2012-01-10 08:48:06 51°23.363 2°47.682 8.1641 3.467258 33.024277 -2.458615
2012-01-10 08:48:11 51°23.378 2°47.673 8.1665 3.470157 33.052355 -2.458615
2012-01-10 08:48:16 51°23.393 2°47.664 8.1699 3.472952 33.077612 -2.458615
2012-01-10 08:48:22 51°23.411 2°47.654 8.1729 3.472641 33.071739 -2.458615
2012-01-10 08:48:26 51°23.422 2°47.646 8.1755 3.474401 33.086042 -2.458615
2012-01-10 08:48:31 51°23.438 2°47.637 8.1787 3.474401 33.086042 -2.458615
2012-01-10 08:48:36 51°23.453 2°47.628 8.1822 3.47347 33.071875 -2.458615
2012-01-10 08:48:41 51°23.468 2°47.619 8.1837 3.475229 33.087037 -2.458615
2012-01-10 08:48:46 51°23.483 2°47.61 8.1883 3.476575 33.097818 -2.458615
2012-01-10 08:48:51 51°23.497 2°47.6 8.1927 3.476989 33.098746 -2.458615
2012-01-10 08:48:56 51°23.512 2°47.591 8.1931 3.475229 33.07669 -2.458615
2012-01-10 08:49:01 51°23.527 2°47.58 8.196 3.475229 33.07669 -2.458615
2012-01-10 08:49:06 51°23.542 2°47.571 8.198 3.477196 33.094035 -2.458615
2012-01-10 08:49:11 51°23.557 2°47.56 8.2018 3.490033 33.226322 -2.458615
2012-01-10 08:49:17 51°23.575 2°47.547 8.2024 3.50432 33.374871 -2.458615
2012-01-10 08:49:21 51°23.586 2°47.538 8.2053 3.505149 33.380157 -2.458615
2012-01-10 08:49:26 51°23.601 2°47.526 8.2064 3.469018 32.994696 -2.458615
2012-01-10 08:49:31 51°23.615 2°47.514 8.209 3.469018 32.994696 -2.458615
2012-01-10 08:49:36 51°23.63 2°47.503 8.2106 3.471088 33.013989 -2.458615
2012-01-10 08:49:41 51°23.644 2°47.491 8.2123 3.467154 32.969002 -2.458615
2012-01-10 08:49:46 51°23.659 2°47.479 8.2141 3.4685 32.981498 -2.458615
2012-01-10 08:49:51 51°23.674 2°47.468 8.2146 3.492621 33.232917 -2.458615
2012-01-10 08:49:57 51°23.691 2°47.455 8.217 3.509393 33.408542 -2.458615
2012-01-10 08:50:01 51°23.703 2°47.446 8.2191 3.509393 33.408542 -2.458615
2012-01-10 08:50:06 51°23.718 2°47.435 8.2197 3.510014 33.412504 -2.458615
2012-01-10 08:50:11 51°23.733 2°47.425 8.2213 3.510532 33.41537 -2.458615
2012-01-10 08:50:16 51°23.748 2°47.415 8.2215 3.51105 33.418235 -2.458615
2012-01-10 08:50:22 51°23.766 2°47.404 8.223 3.51136 33.419781 -2.458615
2012-01-10 08:50:26 51°23.778 2°47.396 8.2234 3.511878 33.423516 -2.458615
2012-01-10 08:50:31 51°23.793 2°47.385 8.2257 3.511878 33.423516 -2.458615
2012-01-10 08:50:36 51°23.807 2°47.374 8.2264 3.512188 33.424191 -2.458615
2012-01-10 08:50:42 51°23.825 2°47.361 8.2302 3.512603 33.42596 -2.458615
2012-01-10 08:50:46 51°23.836 2°47.351 8.2283 3.512499 33.423996 -2.458615
2012-01-10 08:50:51 51°23.851 2°47.339 8.2296 3.512706 33.425316 -2.458615
2012-01-10 08:50:56 51°23.865 2°47.328 8.2313 3.513638 33.434299 -2.458615
2012-01-10 08:51:01 51°23.88 2°47.316 8.2313 3.513638 33.434299 -2.458615
2012-01-10 08:51:06 51°23.895 2°47.305 8.2322 3.513845 33.433878 -2.458615
2012-01-10 08:51:11 51°23.909 2°47.293 8.2347 3.514363 33.439352 -2.458615
2012-01-10 08:51:16 51°23.924 2°47.283 8.2361 3.51457 33.439801 -2.458615
2012-01-10 08:51:21 51°23.939 2°47.273 8.2374 3.514052 33.432588 -2.458615
2012-01-10 08:51:26 51°23.954 2°47.263 8.2393 3.513948 33.430624 -2.458615
2012-01-10 08:51:31 51°23.969 2°47.253 8.2389 3.513948 33.430624 -2.458615
2012-01-10 08:51:36 51°23.984 2°47.244 8.2396 3.514052 33.430849 -2.458615
2012-01-10 08:51:41 51°23.999 2°47.235 8.2419 3.514466 33.433487 -2.458615
2012-01-10 08:51:46 51°24.014 2°47.227 8.2428 3.514673 33.433937 -2.458615
2012-01-10 08:51:51 51°24.029 2°47.218 8.2434 3.51488 33.434387 -2.458615
2012-01-10 08:51:57 51°24.048 2°47.207 8.2439 3.515191 33.43593 -2.458615
2012-01-10 08:52:01 51°24.06 2°47.2 8.2448 3.515191 33.43593 -2.458615
2012-01-10 08:52:06 51°24.075 2°47.191 8.2447 3.515398 33.43638 -2.458615
2012-01-10 08:52:11 51°24.09 2°47.181 8.2465 3.515708 33.438793 -2.458615
2012-01-10 08:52:17 51°24.108 2°47.171 8.2486 3.515915 33.440112 -2.458615
2012-01-10 08:52:21 51°24.12 2°47.163 8.2488 3.516122 33.439692 -2.458615
2012-01-10 08:52:26 51°24.135 2°47.153 8.2498 3.516329 33.44188 -2.458615
2012-01-10 08:52:31 51°24.15 2°47.142 8.2512 3.516329 33.44188 -2.458615
2012-01-10 08:52:36 51°24.164 2°47.131 8.2526 3.516847 33.446482 -2.458615
2012-01-10 08:52:42 51°24.182 2°47.118 8.2543 3.517054 33.447801 -2.458615
2012-01-10 08:52:46 51°24.193 2°47.108 8.256 3.517365 33.450214 -2.458615
2012-01-10 08:52:51 51°24.208 2°47.097 8.2567 3.517572 33.450663 -2.458615
2012-01-10 08:52:56 51°24.222 2°47.085 8.2567 3.517986 33.454169 -2.458615
2012-01-10 08:53:02 51°24.24 2°47.071 8.2585 3.517986 33.454169 -2.458615
2012-01-10 08:53:06 51°24.252 2°47.061 8.2617 3.518296 33.456582 -2.458615
2012-01-10 08:53:11 51°24.266 2°47.05 8.2619 3.518607 33.458995 -2.458615
2012-01-10 08:53:16 51°24.281 2°47.039 8.2631 3.519021 33.461631 -2.458615
2012-01-10 08:53:21 51°24.295 2°47.029 8.2655 3.519332 33.463174 -2.458615
2012-01-10 08:53:26 51°24.31 2°47.018 8.2661 3.519746 33.46668 -2.458615
2012-01-10 08:53:31 51°24.325 2°47.007 8.2673 3.519746 33.46668 -2.458615
2012-01-10 08:53:36 51°24.339 2°46.997 8.2688 3.52016 33.469316 -2.458615
2012-01-10 08:53:41 51°24.354 2°46.986 8.2696 3.520574 33.471082 -2.458615
2012-01-10 08:53:46 51°24.369 2°46.976 8.2724 3.520781 33.4724 -2.458615
2012-01-10 08:53:51 51°24.384 2°46.966 8.2738 3.521299 33.47613 -2.458615
2012-01-10 08:53:57 51°24.402 2°46.955 8.2738 3.521506 33.476578 -2.458615
2012-01-10 08:54:01 51°24.414 2°46.947 8.2758 3.521506 33.476578 -2.458615
2012-01-10 08:54:06 51°24.429 2°46.938 8.2758 3.522024 33.480307 -2.458615
2012-01-10 08:54:11 51°24.444 2°46.929 8.2771 3.522438 33.483812 -2.458615
2012-01-10 08:54:16 51°24.459 2°46.92 8.2791 3.522748 33.484483 -2.458615
2012-01-10 08:54:21 51°24.474 2°46.911 8.2816 3.523266 33.488212 -2.458615
2012-01-10 08:54:26 51°24.489 2°46.902 8.283 3.523473 33.488659 -2.458615
2012-01-10 08:54:31 51°24.504 2°46.892 8.2826 3.523473 33.488659 -2.458615
2012-01-10 08:54:37 51°24.522 2°46.881 8.2849 3.524094 33.494351 -2.458615
2012-01-10 08:54:42 51°24.537 2°46.872 8.287 3.524301 33.495668 -2.458615
2012-01-10 08:54:46 51°24.549 2°46.864 8.2876 3.524612 33.498079 -2.458615
2012-01-10 08:54:51 51°24.564 2°46.855 8.2896 3.525026 33.499843 -2.458615
2012-01-10 08:54:56 51°24.58 2°46.846 8.2911 3.525336 33.502253 -2.458615
2012-01-10 08:55:02 51°24.597 2°46.834 8.2921 3.525336 33.502253 -2.458615
2012-01-10 08:55:06 51°24.609 2°46.826 8.2945 3.525751 33.504887 -2.458615
2012-01-10 08:55:11 51°24.624 2°46.817 8.2974 3.526268 33.508614 -2.458615
2012-01-10 08:55:16 51°24.639 2°46.807 8.2981 3.526786 33.512341 -2.458615
2012-01-10 08:55:22 51°24.657 2°46.795 8.3006 3.5272 33.514974 -2.458615
2012-01-10 08:55:26 51°24.669 2°46.788 8.3031 3.527718 33.5187 -2.458615
2012-01-10 08:55:31 51°24.684 2°46.778 8.3038 3.527718 33.5187 -2.458615
2012-01-10 08:55:36 51°24.699 2°46.769 8.3059 3.528132 33.521333 -2.458615
2012-01-10 08:55:41 51°24.714 2°46.759 8.3088 3.528649 33.525929 -2.458615
2012-01-10 08:55:46 51°24.729 2°46.75 8.3105 3.529064 33.527691 -2.458615
2012-01-10 08:55:51 51°24.744 2°46.74 8.3146 3.529478 33.529452 -2.458615
2012-01-10 08:55:56 51°24.759 2°46.729 8.317 3.529892 33.532084 -2.458615
2012-01-10 08:56:01 51°24.774 2°46.719 8.3174 3.529892 33.532084 -2.458615
2012-01-10 08:56:06 51°24.788 2°46.709 8.3193 3.530409 33.535809 -2.458615
2012-01-10 08:56:11 51°24.804 2°46.698 8.3208 3.530927 33.538663 -2.458615
2012-01-10 08:56:17 51°24.821 2°46.684 8.3242 3.531445 33.542387 -2.458615
2012-01-10 08:56:21 51°24.832 2°46.675 8.3263 3.531652 33.541962 -2.458615
2012-01-10 08:56:26 51°24.847 2°46.663 8.3288 3.532273 33.545908 -2.458615
2012-01-10 08:56:31 51°24.861 2°46.651 8.33 3.532273 33.545908 -2.458615
2012-01-10 08:56:37 51°24.878 2°46.637 8.3331 3.532584 33.546575 -2.458615
2012-01-10 08:56:41 51°24.89 2°46.628 8.3369 3.533308 33.552484 -2.458615
2012-01-10 08:56:46 51°24.904 2°46.617 8.3392 3.533826 33.556207 -2.458615
2012-01-10 08:56:51 51°24.919 2°46.605 8.3437 3.534344 33.559059 -2.458615
2012-01-10 08:56:57 51°24.936 2°46.593 8.3446 3.534861 33.561911 -2.458615
2012-01-10 08:57:02 51°24.951 2°46.583 8.3473 3.534861 33.561911 -2.458615
2012-01-10 08:57:06 51°24.963 2°46.575 8.3495 3.535379 33.564762 -2.458615
2012-01-10 08:57:11 51°24.978 2°46.565 8.3502 3.536 33.567836 -2.458615
2012-01-10 08:57:16 51°24.993 2°46.555 8.3531 3.536621 33.570908 -2.458615
2012-01-10 08:57:22 51°25.011 2°46.544 8.3546 3.537243 33.573981 -2.458615
2012-01-10 08:57:26 51°25.023 2°46.536 8.3567 3.53776 33.576831 -2.458615
2012-01-10 08:57:31 51°25.038 2°46.527 8.3569 3.53776 33.576831 -2.458615
2012-01-10 08:57:36 51°25.053 2°46.518 8.3594 3.538381 33.580773 -2.458615
2012-01-10 08:57:41 51°25.068 2°46.509 8.362 3.539003 33.584714 -2.458615
2012-01-10 08:57:46 51°25.083 2°46.5 8.3622 3.539313 33.585379 -2.458615
2012-01-10 08:57:51 51°25.097 2°46.489 8.3648 3.540038 33.590412 -2.458615
2012-01-10 08:57:56 51°25.112 2°46.479 8.3665 3.540556 33.594131 -2.458615
2012-01-10 08:58:01 51°25.126 2°46.468 8.3692 3.540556 33.594131 -2.458615
2012-01-10 08:58:06 51°25.141 2°46.458 8.3715 3.541177 33.598072 -2.458615
2012-01-10 08:58:11 51°25.156 2°46.447 8.3726 3.541591 33.601569 -2.458615
2012-01-10 08:58:17 51°25.173 2°46.433 8.3764 3.542005 33.604195 -2.458615
2012-01-10 08:58:21 51°25.185 2°46.424 8.3765 3.54273 33.610097 -2.458615
2012-01-10 08:58:26 51°25.199 2°46.412 8.3776 3.543247 33.613815 -2.458615
2012-01-10 08:58:31 51°25.214 2°46.4 8.3793 3.543247 33.613815 -2.458615
2012-01-10 08:58:36 51°25.228 2°46.388 8.3814 3.543765 33.616662 -2.458615
2012-01-10 08:58:41 51°25.242 2°46.376 8.3834 3.544179 33.618416 -2.458615
2012-01-10 08:58:46 51°25.256 2°46.363 8.3849 3.544593 33.620171 -2.458615
2012-01-10 08:58:51 51°25.271 2°46.351 8.3854 3.545111 33.623887 -2.458615
2012-01-10 08:58:57 51°25.288 2°46.336 8.388 3.545629 33.627604 -2.458615
2012-01-10 08:59:02 51°25.302 2°46.323 8.3873 3.545629 33.627604 -2.458615
2012-01-10 08:59:06 51°25.314 2°46.313 8.3895 3.546043 33.630229 -2.458615
2012-01-10 08:59:11 51°25.328 2°46.301 8.3906 3.546457 33.632853 -2.458615
2012-01-10 08:59:17 51°25.345 2°46.286 8.3898 3.546871 33.634606 -2.458615
2012-01-10 08:59:22 51°25.359 2°46.274 8.391 3.547182 33.636139 -2.458615
2012-01-10 08:59:26 51°25.371 2°46.265 8.3929 3.547492 33.637671 -2.458615
2012-01-10 08:59:31 51°25.385 2°46.253 8.3942 3.547492 33.637671 -2.458615
2012-01-10 08:59:36 51°25.4 2°46.242 8.3932 3.547699 33.638112 -2.458615
2012-01-10 08:59:42 51°25.417 2°46.228 8.3936 3.54801 33.639645 -2.458615
2012-01-10 08:59:46 51°25.429 2°46.219 8.3948 3.548217 33.640085 -2.458615
2012-01-10 08:59:51 51°25.443 2°46.207 8.3957 3.548528 33.643359 -2.458615
2012-01-10 08:59:56 51°25.458 2°46.196 8.3976 3.548838 33.644891 -2.458615
2012-01-10 09:00:01 51°25.472 2°46.184 8.3981 3.548838 33.644891 -2.458615
2012-01-10 09:00:06 51°25.486 2°46.173 8.3991 3.548838 33.64402 -2.458615
2012-01-10 09:00:11 51°25.501 2°46.161 8.3991 3.549149 33.646423 -2.458615
2012-01-10 09:00:17 51°25.518 2°46.148 8.4007 3.549149 33.645552 -2.458615
2012-01-10 09:00:21 51°25.53 2°46.138 8.3998 3.549356 33.646864 -2.458615
2012-01-10 09:00:26 51°25.544 2°46.127 8.4012 3.549459 33.647955 -2.458615
2012-01-10 09:00:31 51°25.559 2°46.116 8.4034 3.549459 33.647955 -2.458615
2012-01-10 09:00:36 51°25.573 2°46.104 8.4039 3.549459 33.646213 -2.458615
2012-01-10 09:00:41 51°25.587 2°46.092 8.4044 3.549666 33.647525 -2.458615
2012-01-10 09:00:46 51°25.601 2°46.08 8.4061 3.54977 33.647745 -2.458615
2012-01-10 09:00:51 51°25.615 2°46.067 8.4063 3.549977 33.649056 -2.458615
2012-01-10 09:00:57 51°25.632 2°46.052 8.4081 3.550184 33.650368 -2.458615
2012-01-10 09:01:01 51°25.643 2°46.041 8.4093 3.550184 33.650368 -2.458615
2012-01-10 09:01:06 51°25.657 2°46.029 8.4113 3.550391 33.651679 -2.458615
2012-01-10 09:01:11 51°25.672 2°46.017 8.4129 3.550702 33.65321 -2.458615
2012-01-10 09:01:17 51°25.689 2°46.002 8.4143 3.550702 33.652339 -2.458615
2012-01-10 09:01:21 51°25.701 2°45.993 8.4154 3.551012 33.654741 -2.458615
2012-01-10 09:01:26 51°25.715 2°45.981 8.4155 3.551323 33.657144 -2.458615
2012-01-10 09:01:31 51°25.729 2°45.969 8.4168 3.551323 33.657144 -2.458615
2012-01-10 09:01:37 51°25.746 2°45.954 8.4179 3.551427 33.657364 -2.458615
2012-01-10 09:01:42 51°25.76 2°45.942 8.4214 3.551841 33.659985 -2.458615
2012-01-10 09:01:46 51°25.772 2°45.932 8.4218 3.552048 33.660426 -2.458615
2012-01-10 09:01:51 51°25.786 2°45.92 8.4228 3.552255 33.660865 -2.458615
2012-01-10 09:01:56 51°25.8 2°45.908 8.4238 3.552565 33.663267 -2.458615
2012-01-10 09:02:02 51°25.817 2°45.894 8.4271 3.552565 33.663267 -2.458615
2012-01-10 09:02:06 51°25.829 2°45.886 8.4282 3.552876 33.665669 -2.458615
2012-01-10 09:02:11 51°25.843 2°45.875 8.4305 3.553083 33.666108 -2.458615
2012-01-10 09:02:16 51°25.858 2°45.865 8.4327 3.553394 33.666768 -2.458615
2012-01-10 09:02:21 51°25.873 2°45.855 8.4352 3.553704 33.668298 -2.458615
2012-01-10 09:02:26 51°25.888 2°45.846 8.4355 3.554015 33.670699 -2.458615
2012-01-10 09:02:31 51°25.903 2°45.837 8.4372 3.554015 33.670699 -2.458615
2012-01-10 09:02:36 51°25.918 2°45.828 8.4387 3.554429 33.67332 -2.458615
2012-01-10 09:02:41 51°25.933 2°45.819 8.4406 3.55474 33.673979 -2.458615
2012-01-10 09:02:46 51°25.948 2°45.81 8.4425 3.55505 33.674638 -2.458615
2012-01-10 09:02:51 51°25.963 2°45.8 8.4435 3.555361 33.675298 -2.458615
2012-01-10 09:02:57 51°25.98 2°45.788 8.4459 3.555775 33.677918 -2.458615
2012-01-10 09:03:01 51°25.991 2°45.779 8.4481 3.555775 33.677918 -2.458615
2012-01-10 09:03:06 51°26.006 2°45.769 8.4495 3.556189 33.681408 -2.458615
2012-01-10 09:03:11 51°26.021 2°45.759 8.4535 3.556603 33.684028 -2.458615
2012-01-10 09:03:16 51°26.036 2°45.748 8.4531 3.557017 33.686647 -2.458615
2012-01-10 09:03:21 51°26.05 2°45.738 8.4566 3.557328 33.688176 -2.458615
2012-01-10 09:03:26 51°26.065 2°45.727 8.4586 3.557742 33.690796 -2.458615
2012-01-10 09:03:31 51°26.08 2°45.718 8.4613 3.557742 33.690796 -2.458615
2012-01-10 09:03:37 51°26.097 2°45.706 8.464 3.558053 33.692324 -2.458615
2012-01-10 09:03:42 51°26.112 2°45.696 8.4666 3.558363 33.692982 -2.458615
2012-01-10 09:03:46 51°26.124 2°45.688 8.4687 3.558778 33.695601 -2.458615
2012-01-10 09:03:51 51°26.139 2°45.679 8.4712 3.559192 33.697349 -2.458615
2012-01-10 09:03:57 51°26.156 2°45.666 8.4746 3.559709 33.700186 -2.458615
2012-01-10 09:04:02 51°26.171 2°45.656 8.4773 3.559709 33.700186 -2.458615
2012-01-10 09:04:06 51°26.183 2°45.648 8.4793 3.560227 33.703024 -2.458615
2012-01-10 09:04:11 51°26.198 2°45.637 8.4818 3.560745 33.70586 -2.458615
2012-01-10 09:04:16 51°26.212 2°45.625 8.4846 3.561469 33.710876 -2.458615
2012-01-10 09:04:22 51°26.229 2°45.61 8.4873 3.561987 33.713713 -2.458615
2012-01-10 09:04:26 51°26.24 2°45.6 8.4885 3.562608 33.716767 -2.458615
2012-01-10 09:04:31 51°26.254 2°45.588 8.4905 3.562608 33.716767 -2.458615
2012-01-10 09:04:36 51°26.268 2°45.575 8.4919 3.563126 33.719603 -2.458615
2012-01-10 09:04:41 51°26.282 2°45.562 8.4943 3.563644 33.722438 -2.458615
2012-01-10 09:04:46 51°26.296 2°45.549 8.4959 3.564265 33.726362 -2.458615
2012-01-10 09:04:51 51°26.311 2°45.536 8.4975 3.564679 33.728108 -2.458615
2012-01-10 09:04:56 51°26.325 2°45.524 8.497 3.565197 33.730942 -2.458615
2012-01-10 09:05:01 51°26.339 2°45.512 8.4988 3.565197 33.730942 -2.458615
2012-01-10 09:05:06 51°26.354 2°45.5 8.4989 3.565714 33.733776 -2.458615
2012-01-10 09:05:11 51°26.369 2°45.489 8.4981 3.566336 33.737699 -2.458615
2012-01-10 09:05:16 51°26.383 2°45.478 8.4973 3.56675 33.740314 -2.458615
2012-01-10 09:05:21 51°26.398 2°45.467 8.4948 3.56706 33.740969 -2.458615
2012-01-10 09:05:26 51°26.413 2°45.456 8.4932 3.567578 33.744673 -2.458615
2012-01-10 09:05:31 51°26.427 2°45.446 8.4932 3.567578 33.744673 -2.458615
2012-01-10 09:05:37 51°26.445 2°45.434 8.4896 3.567992 33.747287 -2.458615
2012-01-10 09:05:41 51°26.457 2°45.425 8.4904 3.568303 33.749684 -2.458615
2012-01-10 09:05:46 51°26.472 2°45.415 8.4879 3.56851 33.750991 -2.458615
2012-01-10 09:05:51 51°26.487 2°45.404 8.4865 3.56851 33.750991 -2.458615
2012-01-10 09:05:57 51°26.505 2°45.391 8.4854 3.56851 33.751862 -2.458615
2012-01-10 09:06:01 51°26.517 2°45.383 8.4868 3.56851 33.751862 -2.458615
2012-01-10 09:06:06 51°26.531 2°45.372 8.4889 3.568303 33.750554 -2.458615
2012-01-10 09:06:11 51°26.546 2°45.361 8.4884 3.568096 33.750118 -2.458615
2012-01-10 09:06:16 51°26.561 2°45.35 8.4884 3.567889 33.748811 -2.458615
2012-01-10 09:06:22 51°26.578 2°45.337 8.4911 3.567682 33.748375 -2.458615
2012-01-10 09:06:26 51°26.59 2°45.327 8.494 3.567578 33.749027 -2.458615
2012-01-10 09:06:31 51°26.604 2°45.316 8.4953 3.567578 33.749027 -2.458615
2012-01-10 09:06:36 51°26.618 2°45.303 8.4969 3.567475 33.748809 -2.458615
2012-01-10 09:06:41 51°26.632 2°45.29 8.4995 3.567371 33.74772 -2.458615
2012-01-10 09:06:46 51°26.646 2°45.278 8.5033 3.567475 33.747938 -2.458615
2012-01-10 09:06:51 51°26.66 2°45.264 8.5044 3.567578 33.748156 -2.458615
2012-01-10 09:06:56 51°26.675 2°45.251 8.5049 3.567992 33.751642 -2.458615
2012-01-10 09:07:01 51°26.689 2°45.238 8.508 3.567992 33.751642 -2.458615
2012-01-10 09:07:06 51°26.703 2°45.225 8.5122 3.568199 33.752949 -2.458615
2012-01-10 09:07:11 51°26.717 2°45.212 8.5135 3.568614 33.755564 -2.458615
2012-01-10 09:07:16 51°26.731 2°45.199 8.5161 3.569028 33.757307 -2.458615
2012-01-10 09:07:21 51°26.745 2°45.186 8.5205 3.569338 33.757961 -2.458615
2012-01-10 09:07:26 51°26.76 2°45.173 8.5268 3.569753 33.759703 -2.458615
2012-01-10 09:07:31 51°26.774 2°45.162 8.532 3.569753 33.759703 -2.458615
2012-01-10 09:07:36 51°26.789 2°45.15 8.5357 3.57027 33.763406 -2.458615
2012-01-10 09:07:41 51°26.803 2°45.139 8.5414 3.570788 33.766237 -2.458615
2012-01-10 09:07:46 51°26.818 2°45.128 8.5476 3.571306 33.768197 -2.458615
2012-01-10 09:07:51 51°26.832 2°45.117 8.5541 3.572134 33.774293 -2.458615